IW0UWF-4 Weather Reports


time (UTC)temp
C
wind
direction
speed
KPH
gust
KPH
rain 1hr
cm
rain 24hr
cm
rain mn
cm
humidity
%
barometer
mb
20260507155803 17 122 6.4 8.0 0.00 0.00 0.00 44 1004.2
20260507155704 17 130 6.4 8.0 0.00 0.00 0.00 44 1004.1
20260507155604 17 124 6.4 8.0 0.00 0.00 0.00 44 1004.2
20260507155504 17 129 6.4 8.0 0.00 0.00 0.00 43 1004.2
20260507155404 17 136 6.4 8.0 0.00 0.00 0.00 43 1004.2
20260507155306 17 147 6.4 8.0 0.00 0.00 0.00 43 1004.2
20260507155204 17 140 6.4 8.0 0.00 0.00 0.00 43 1004.2
20260507155104 17 135 6.4 8.0 0.00 0.00 0.00 42 1004.2
20260507155004 17 146 4.8 6.4 0.00 0.00 0.00 42 1004.2
20260507154903 17 138 4.8 6.4 0.00 0.00 0.00 42 1004.0
20260507154803 17 141 4.8 6.4 0.00 0.00 0.00 42 1004.2
20260507154704 17 142 4.8 6.4 0.00 0.00 0.00 42 1004.2
20260507154603 17 157 4.8 6.4 0.00 0.00 0.00 42 1004.2
20260507154504 17 174 4.8 6.4 0.00 0.00 0.00 42 1004.3
20260507154403 17 202 3.2 6.4 0.00 0.00 0.00 42 1004.2
20260507154303 17 246 3.2 6.4 0.00 0.00 0.00 42 1004.2
20260507154203 17 305 3.2 6.4 0.00 0.00 0.00 42 1004.2
20260507154103 17 334 3.2 6.4 0.00 0.00 0.00 42 1004.2
20260507154003 17 330 3.2 6.4 0.00 0.00 0.00 42 1004.2
20260507153903 17 157 3.2 6.4 0.00 0.00 0.00 43 1004.0
20260507153804 17 140 3.2 6.4 0.00 0.00 0.00 43 1004.2
20260507153704 17 113 3.2 6.4 0.00 0.00 0.00 43 1004.2
20260507153604 17 121 3.2 6.4 0.00 0.00 0.00 43 1004.3
20260507153504 17 134 3.2 6.4 0.00 0.00 0.00 43 1004.2
20260507153404 17 142 3.2 6.4 0.00 0.00 0.00 43 1004.2
20260507153304 17 152 4.8 6.4 0.00 0.00 0.00 43 1004.2
20260507153204 17 164 4.8 6.4 0.00 0.00 0.00 44 1004.2
20260507153103 17 149 4.8 6.4 0.00 0.00 0.00 44 1004.2
20260507153004 18 140 4.8 6.4 0.00 0.00 0.00 44 1004.2
20260507152903 18 133 4.8 6.4 0.00 0.00 0.00 44 1004.4
20260507152803 18 143 4.8 6.4 0.00 0.00 0.00 44 1004.2
20260507152703 18 148 4.8 6.4 0.00 0.00 0.00 45 1004.1
20260507152603 18 152 4.8 6.4 0.00 0.00 0.00 46 1004.2
20260507152503 18 142 4.8 6.4 0.00 0.00 0.00 46 1004.1
20260507152403 18 134 4.8 8.0 0.00 0.00 0.00 46 1004.2
20260507152306 18 112 4.8 8.0 0.00 0.00 0.00 47 1004.2
20260507152203 18 106 6.4 8.0 0.00 0.00 0.00 48 1004.3
20260507152103 18 129 6.4 8.0 0.00 0.00 0.00 49 1004.3
20260507152003 18 157 4.8 8.0 0.00 0.00 0.00 50 1004.3
20260507151703 18 167 4.8 8.0 0.00 0.00 0.00 52 1004.2
20260507151603 18 169 4.8 8.0 0.00 0.00 0.00 53 1004.1
20260507151503 18 168 4.8 8.0 0.00 0.00 0.00 53 1004.1
20260507151403 18 168 4.8 8.0 0.00 0.00 0.00 54 1004.1
20260507151304 18 154 3.2 6.4 0.00 0.00 0.00 54 1004.0
20260507151204 18 147 3.2 6.4 0.00 0.00 0.00 55 1004.1
20260507151104 18 151 1.6 6.4 0.00 0.00 0.00 56 1004.0
20260507151004 18 160 1.6 6.4 0.00 0.00 0.00 58 1003.9
20260507150904 18 154 1.6 3.2 0.00 0.00 0.00 59 1003.9
20260507150804 18 171 1.6 3.2 0.00 0.00 0.00 60 1003.9
20260507150704 18 185 1.6 3.2 0.00 0.00 0.00 60 1004.0
20260507150604 18 195 1.6 3.2 0.00 0.00 0.00 63 1003.9
20260507150504 18 189 1.6 3.2 0.00 0.00 0.00 63 1003.9
20260507150404 18 181 1.6 3.2 0.00 0.00 0.00 63 1004.0
20260507150304 18 179 3.2 6.4 0.00 0.00 0.00 63 1004.0
20260507150204 18 182 3.2 6.4 0.00 0.00 0.00 63 1004.0
20260507150103 18 185 3.2 8.0 0.00 0.00 0.00 63 1004.0
20260507150004 18 174 4.8 8.0 0.00 0.00 0.00 63 1003.9
20260507145903 18 166 4.8 8.0 0.00 0.00 0.00 63 1003.9
20260507145803 17 155 4.8 8.0 0.00 0.00 0.00 64 1004.2
20260507145703 17 152 4.8 8.0 0.00 0.00 0.00 64 1003.9
20260507145603 17 148 4.8 8.0 0.00 0.00 0.00 64 1004.0
20260507145503 17 145 4.8 8.0 0.00 0.00 0.00 64 1003.9
20260507145403 17 160 4.8 8.0 0.00 0.00 0.00 65 1003.8
20260507145306 17 163 4.8 8.0 0.00 0.00 0.00 66 1004.0
20260507145203 17 164 4.8 8.0 0.00 0.00 0.00 66 1003.9
20260507145103 17 138 4.8 8.0 0.00 0.00 0.00 66 1004.0
20260507145003 17 156 3.2 4.8 0.00 0.00 0.00 67 1003.9
20260507144903 17 172 3.2 6.4 0.00 0.00 0.00 68 1004.0
20260507144804 17 171 4.8 6.4 0.00 0.00 0.00 68 1004.0
20260507144704 17 171 3.2 6.4 0.00 0.00 0.00 68 1004.1
20260507144604 17 167 3.2 6.4 0.00 0.00 0.00 69 1004.1
20260507144504 17 176 3.2 6.4 0.00 0.00 0.00 69 1004.1
20260507144404 17 176 4.8 6.4 0.00 0.00 0.00 69 1004.1
20260507144304 17 168 3.2 6.4 0.00 0.00 0.00 69 1004.1
20260507144204 17 157 3.2 6.4 0.00 0.00 0.00 69 1004.1
20260507144104 17 166 3.2 6.4 0.00 0.00 0.00 69 1004.2
20260507144004 17 171 3.2 6.4 0.00 0.00 0.00 69 1004.1
20260507143904 17 168 3.2 6.4 0.00 0.00 0.00 69 1004.1
20260507143804 17 172 3.2 6.4 0.00 0.00 0.00 69 1004.2
20260507143704 17 172 1.6 6.4 0.00 0.00 0.00 69 1004.2
20260507143604 17 173 1.6 6.4 0.00 0.00 0.00 69 1004.2
20260507143503 17 170 1.6 6.4 0.00 0.00 0.00 69 1004.1
20260507143403 17 162 1.6 4.8 0.00 0.00 0.00 69 1004.1
20260507143303 17 166 1.6 4.8 0.00 0.00 0.00 69 1004.3
20260507143203 17 173 1.6 4.8 0.00 0.00 0.00 69 1004.2
20260507143103 17 173 1.6 4.8 0.00 0.00 0.00 69 1004.3
20260507143003 17 173 1.6 4.8 0.00 0.00 0.00 68 1004.2
20260507142903 17 172 1.6 4.8 0.00 0.00 0.00 68 1004.3
20260507142803 17 172 1.6 4.8 0.00 0.00 0.00 68 1004.2
20260507142703 17 169 1.6 4.8 0.00 0.00 0.00 68 1004.1
20260507142603 17 169 1.6 4.8 0.00 0.00 0.00 67 1004.3
20260507142503 17 162 1.6 3.2 0.00 0.00 0.00 67 1004.3
20260507142403 17 169 0.0 3.2 0.00 0.00 0.00 67 1004.2
20260507142306 17 171 0.0 3.2 0.00 0.00 0.00 67 1004.2
20260507142204 17 172 0.0 3.2 0.00 0.00 0.00 67 1004.3
20260507142104 17 165 1.6 4.8 0.00 0.00 0.00 66 1004.1
20260507142004 17 150 1.6 4.8 0.00 0.00 0.00 66 1004.4
20260507141703 17 156 3.2 6.4 0.00 0.00 0.00 65 1004.2
20260507141603 17 148 3.2 6.4 0.00 0.00 0.00 65 1004.2
20260507141503 17 148 3.2 6.4 0.00 0.00 0.00 65 1004.2
20260507141403 17 148 3.2 6.4 0.00 0.00 0.00 65 1004.4
20260507141303 17 146 3.2 6.4 0.00 0.00 0.00 64 1004.3
20260507141203 17 148 3.2 6.4 0.00 0.00 0.00 64 1004.2
20260507141103 17 149 3.2 6.4 0.00 0.00 0.00 64 1004.4
20260507141003 17 143 1.6 6.4 0.00 0.00 0.00 63 1004.4
20260507140903 17 143 1.6 6.4 0.00 0.00 0.00 63 1004.3
20260507140803 17 141 1.6 4.8 0.00 0.00 0.00 63 1004.4
20260507140703 17 148 1.6 3.2 0.00 0.00 0.00 63 1004.4
20260507140604 17 180 1.6 3.2 0.00 0.00 0.00 62 1004.3
20260507140507 17 180 1.6 4.8 0.00 0.00 0.00 62 1004.4
20260507140404 17 180 1.6 4.8 0.00 0.00 0.00 62 1004.5
20260507140304 17 177 1.6 8.0 0.00 0.00 0.00 62 1004.3
20260507140204 17 165 3.2 8.0 0.00 0.00 0.00 61 1004.4
20260507140104 17 164 3.2 8.0 0.00 0.00 0.00 61 1004.4
20260507140004 17 161 3.2 8.0 0.00 0.00 0.00 61 1004.4
20260507135903 17 160 3.2 8.0 0.00 0.00 0.00 61 1004.4
20260507135804 17 159 4.8 8.0 0.00 0.00 0.00 60 1004.6
20260507135703 17 155 4.8 9.7 0.00 0.00 0.00 60 1004.4
20260507135604 18 151 4.8 9.7 0.00 0.00 0.00 60 1004.5
20260507135503 18 148 4.8 9.7 0.00 0.00 0.00 60 1004.6
20260507135403 18 146 4.8 9.7 0.00 0.00 0.00 59 1004.5
20260507135306 18 146 4.8 9.7 0.00 0.00 0.00 58 1004.7
20260507135203 18 147 4.8 9.7 0.00 0.00 0.00 57 1004.6
20260507135103 18 140 3.2 9.7 0.00 0.00 0.00 57 1004.5
20260507135003 18 140 3.2 9.7 0.00 0.00 0.00 56 1004.7
20260507134903 18 139 3.2 9.7 0.00 0.00 0.00 55 1004.5
20260507134803 18 137 3.2 9.7 0.00 0.00 0.00 55 1004.6
20260507134703 18 140 3.2 9.7 0.00 0.00 0.00 54 1004.6
20260507134603 18 144 3.2 6.4 0.00 0.00 0.00 54 1004.5
20260507134505 18 149 3.2 6.4 0.00 0.00 0.00 53 1004.6
20260507134404 18 139 4.8 6.4 0.00 0.00 0.00 53 1004.6
20260507134304 19 135 4.8 6.4 0.00 0.00 0.00 53 1004.7
20260507134204 19 119 4.8 6.4 0.00 0.00 0.00 53 1004.6
20260507134104 19 127 4.8 6.4 0.00 0.00 0.00 53 1004.5
20260507134004 19 128 4.8 6.4 0.00 0.00 0.00 52 1004.5
20260507133904 19 129 4.8 6.4 0.00 0.00 0.00 52 1004.6
20260507133804 20 134 4.8 6.4 0.00 0.00 0.00 52 1004.5
20260507133703 20 118 4.8 6.4 0.00 0.00 0.00 52 1004.7
20260507133604 20 121 4.8 6.4 0.00 0.00 0.00 51 1004.6
20260507133503 20 100 4.8 6.4 0.00 0.00 0.00 51 1004.6
20260507133403 20 115 4.8 6.4 0.00 0.00 0.00 51 1004.6
20260507133303 20 122 6.4 6.4 0.00 0.00 0.00 51 1004.5
20260507133203 20 123 6.4 6.4 0.00 0.00 0.00 51 1004.5
20260507133103 20 123 6.4 8.0 0.00 0.00 0.00 51 1004.6
20260507133003 20 108 6.4 9.7 0.00 0.00 0.00 51 1004.6
20260507132903 20 98 6.4 9.7 0.00 0.00 0.00 51 1004.5
20260507132803 21 88 6.4 9.7 0.00 0.00 0.00 51 1004.6
20260507132703 21 96 6.4 9.7 0.00 0.00 0.00 51 1004.6
20260507132603 21 85 6.4 9.7 0.00 0.00 0.00 51 1004.5
20260507132504 21 99 6.4 9.7 0.00 0.00 0.00 51 1004.5
20260507132404 21 96 8.0 9.7 0.00 0.00 0.00 52 1004.6
20260507132307 21 78 8.0 9.7 0.00 0.00 0.00 52 1004.6
20260507132204 21 106 8.0 9.7 0.00 0.00 0.00 52 1004.7
20260507132104 21 112 8.0 9.7 0.00 0.00 0.00 51 1004.6
20260507132004 21 145 6.4 9.7 0.00 0.00 0.00 51 1004.7
20260507131703 21 102 6.4 8.0 0.00 0.00 0.00 51 1004.6
20260507131603 21 119 6.4 8.0 0.00 0.00 0.00 51 1004.6
20260507131503 21 139 6.4 8.0 0.00 0.00 0.00 51 1004.7
20260507131403 21 157 6.4 6.4 0.00 0.00 0.00 51 1004.7
20260507131303 21 161 6.4 6.4 0.00 0.00 0.00 51 1004.7
20260507131203 21 175 6.4 6.4 0.00 0.00 0.00 51 1004.5
20260507131103 21 185 6.4 6.4 0.00 0.00 0.00 51 1004.7
20260507131003 20 191 6.4 6.4 0.00 0.00 0.00 51 1004.7
20260507130904 20 184 6.4 6.4 0.00 0.00 0.00 51 1004.7
20260507130804 20 181 6.4 6.4 0.00 0.00 0.00 51 1004.8
20260507130705 20 168 6.4 6.4 0.00 0.00 0.00 51 1004.7
20260507130604 20 169 6.4 6.4 0.00 0.00 0.00 51 1004.8
20260507130504 20 174 6.4 8.0 0.00 0.00 0.00 51 1004.8
20260507130404 20 175 6.4 8.0 0.00 0.00 0.00 51 1004.8
20260507130304 20 176 6.4 8.0 0.00 0.00 0.00 51 1004.8
20260507130204 20 188 6.4 8.0 0.00 0.00 0.00 51 1004.8
20260507130103 20 221 6.4 8.0 0.00 0.00 0.00 51 1004.8
20260507130004 20 317 6.4 9.7 0.00 0.00 0.00 51 1004.8
20260507125904 20 321 6.4 9.7 0.00 0.00 0.00 51 1004.9
20260507125803 20 283 6.4 9.7 0.00 0.00 0.00 52 1004.8
20260507125703 20 278 6.4 9.7 0.00 0.00 0.00 52 1004.9
20260507125603 20 267 6.4 9.7 0.00 0.00 0.00 52 1004.9
20260507125503 20 299 6.4 9.7 0.00 0.00 0.00 52 1004.6
20260507125403 20 303 6.4 9.7 0.00 0.00 0.00 52 1004.7
20260507125306 20 301 6.4 9.7 0.00 0.00 0.00 52 1004.8
20260507125203 20 305 6.4 9.7 0.00 0.00 0.00 52 1004.8
20260507125103 19 303 6.4 9.7 0.00 0.00 0.00 53 1004.6
20260507125003 19 280 6.4 6.4 0.00 0.00 0.00 53 1004.7
20260507124903 19 269 6.4 6.4 0.00 0.00 0.00 53 1004.7
20260507124803 19 275 6.4 6.4 0.00 0.00 0.00 53 1004.7
20260507124704 19 287 6.4 6.4 0.00 0.00 0.00 53 1004.8
20260507124604 19 303 6.4 11.3 0.00 0.00 0.00 53 1004.8
20260507124504 18 293 6.4 11.3 0.00 0.00 0.00 53 1004.8
20260507124404 18 295 8.0 11.3 0.00 0.00 0.00 53 1004.8
20260507124304 18 301 8.0 11.3 0.00 0.00 0.00 53 1004.8
20260507124204 18 298 8.0 11.3 0.00 0.00 0.00 54 1004.9
20260507124104 18 292 8.0 11.3 0.00 0.00 0.00 54 1005.0
20260507124004 18 297 8.0 11.3 0.00 0.00 0.00 54 1004.9
20260507123903 18 298 8.0 11.3 0.00 0.00 0.00 54 1005.0
20260507123804 18 298 8.0 11.3 0.00 0.00 0.00 54 1005.1
20260507123703 18 288 9.7 11.3 0.00 0.00 0.00 54 1005.0
20260507123603 18 286 9.7 11.3 0.00 0.00 0.00 54 1005.0
20260507123503 18 285 9.7 11.3 0.00 0.00 0.00 54 1005.0
20260507123403 18 285 8.0 11.3 0.00 0.00 0.00 54 1005.0
20260507123303 18 277 8.0 11.3 0.00 0.00 0.00 53 1005.2
20260507123203 18 283 9.7 11.3 0.00 0.00 0.00 53 1005.1
20260507123103 18 286 9.7 11.3 0.00 0.00 0.00 53 1005.1
20260507123003 18 287 9.7 11.3 0.00 0.00 0.00 53 1005.1
20260507122903 18 288 9.7 11.3 0.00 0.00 0.00 53 1005.2
20260507122803 17 291 9.7 11.3 0.00 0.00 0.00 53 1005.2
20260507122705 17 297 9.7 11.3 0.00 0.00 0.00 53 1005.1
20260507122604 17 294 9.7 11.3 0.00 0.00 0.00 53 1005.1
20260507122504 17 299 9.7 11.3 0.00 0.00 0.00 53 1005.1
20260507122404 17 292 9.7 11.3 0.00 0.00 0.00 53 1005.2
20260507122307 17 309 9.7 11.3 0.00 0.00 0.00 53 1005.3
20260507122204 17 308 9.7 11.3 0.00 0.00 0.00 53 1005.2
20260507122104 17 309 8.0 11.3 0.00 0.00 0.00 53 1005.1
20260507122004 17 268 8.0 11.3 0.00 0.00 0.00 53 1005.3
20260507121704 17 292 8.0 11.3 0.00 0.00 0.00 53 1005.3
20260507121604 17 290 8.0 11.3 0.00 0.00 0.00 53 1005.2
20260507121504 17 283 8.0 11.3 0.00 0.00 0.00 53 1005.2
20260507121403 17 276 8.0 11.3 0.00 0.00 0.00 52 1005.3
20260507121303 17 270 8.0 11.3 0.00 0.00 0.00 52 1005.3
20260507121203 18 267 8.0 9.7 0.00 0.00 0.00 52 1005.3
20260507121103 18 263 6.4 9.7 0.00 0.00 0.00 52 1005.3
20260507121003 18 255 6.4 9.7 0.00 0.00 0.00 52 1005.2
20260507120903 18 260 4.8 8.0 0.00 0.00 0.00 52 1005.3
20260507120803 18 261 4.8 8.0 0.00 0.00 0.00 52 1005.2
20260507120703 18 253 3.2 8.0 0.00 0.00 0.00 52 1005.1
20260507120603 18 244 3.2 8.0 0.00 0.00 0.00 52 1005.1
20260507120504 18 247 3.2 8.0 0.00 0.00 0.00 52 1005.2
20260507120404 18 247 3.2 8.0 0.00 0.00 0.00 52 1005.3
20260507120304 18 237 3.2 8.0 0.00 0.00 0.00 51 1005.1
20260507120204 18 252 3.2 6.4 0.00 0.00 0.00 51 1005.3
20260507120104 18 252 3.2 6.4 0.00 0.00 0.00 51 1005.2
20260507120004 18 253 3.2 6.4 0.00 0.00 0.00 51 1005.2
20260507115904 18 245 3.2 6.4 0.00 0.00 0.00 51 1005.3
20260507115804 18 244 3.2 6.4 0.00 0.00 0.00 51 1005.2
20260507115704 18 243 3.2 6.4 0.00 0.00 0.00 51 1005.1
20260507115604 18 240 3.2 6.4 0.00 0.00 0.00 51 1005.1
20260507115504 18 241 3.2 6.4 0.00 0.00 0.00 51 1005.2
20260507115404 18 238 3.2 6.4 0.00 0.00 0.00 51 1005.1
20260507115307 18 241 1.6 6.4 0.00 0.00 0.00 51 1005.0
20260507115204 19 238 1.6 6.4 0.00 0.00 0.00 51 1005.2
20260507115104 19 224 1.6 4.8 0.00 0.00 0.00 52 1005.2
20260507115003 19 180 0.0 4.8 0.00 0.00 0.00 52 1005.1
20260507114903 19 180 0.0 1.6 0.00 0.00 0.00 52 1005.2
20260507114803 19 0 0.0 0.0 0.00 0.00 0.00 52 1005.0
20260507114704 19 0 0.0 0.0 0.00 0.00 0.00 52 1005.2
20260507114603 20 0 0.0 0.0 0.00 0.00 0.00 52 1005.1
20260507114503 20 0 0.0 0.0 0.00 0.00 0.00 52 1005.2
20260507114403 20 0 0.0 0.0 0.00 0.00 0.00 52 1005.2
20260507114303 20 0 0.0 0.0 0.00 0.00 0.00 52 1005.2
20260507114203 20 0 0.0 0.0 0.00 0.00 0.00 51 1005.0
20260507114103 20 0 0.0 0.0 0.00 0.00 0.00 51 1005.2
20260507114003 20 0 0.0 0.0 0.00 0.00 0.00 51 1005.2
20260507113903 20 218 0.0 3.2 0.00 0.00 0.00 51 1005.2
20260507113804 20 205 0.0 3.2 0.00 0.00 0.00 51 1005.2
20260507113704 20 205 0.0 3.2 0.00 0.00 0.00 51 1005.1
20260507113604 20 205 0.0 3.2 0.00 0.00 0.00 50 1005.1
20260507113504 20 205 0.0 3.2 0.00 0.00 0.00 50 1005.2
20260507113404 20 210 0.0 4.8 0.00 0.00 0.00 50 1005.2
20260507113304 20 217 1.6 4.8 0.00 0.00 0.00 50 1005.1
20260507113204 20 217 1.6 4.8 0.00 0.00 0.00 50 1005.2
20260507113104 20 217 1.6 4.8 0.00 0.00 0.00 50 1005.3
20260507113004 21 217 1.6 4.8 0.00 0.00 0.00 50 1005.4
20260507112904 21 217 1.6 4.8 0.00 0.00 0.00 50 1005.3
20260507112804 21 225 1.6 4.8 0.00 0.00 0.00 49 1005.2
20260507112704 21 225 1.6 4.8 0.00 0.00 0.00 49 1005.1
20260507112603 21 225 1.6 4.8 0.00 0.00 0.00 48 1005.3
20260507112504 21 225 1.6 4.8 0.00 0.00 0.00 48 1005.1
20260507112403 21 224 1.6 4.8 0.00 0.00 0.00 48 1005.3
20260507112306 21 217 0.0 4.8 0.00 0.00 0.00 48 1005.3
20260507112203 21 194 0.0 3.2 0.00 0.00 0.00 48 1005.2
20260507112103 21 188 0.0 3.2 0.00 0.00 0.00 48 1005.4
20260507112003 21 181 1.6 3.2 0.00 0.00 0.00 47 1005.3
20260507111703 21 235 1.6 4.8 0.00 0.00 0.00 46 1005.4
20260507111603 21 211 3.2 6.4 0.00 0.00 0.00 46 1005.3
20260507111503 21 206 3.2 6.4 0.00 0.00 0.00 46 1005.4
20260507111403 21 201 3.2 6.4 0.00 0.00 0.00 45 1005.4
20260507111303 21 198 3.2 6.4 0.00 0.00 0.00 45 1005.4
20260507111204 21 190 3.2 6.4 0.00 0.00 0.00 45 1005.3
20260507111104 21 180 3.2 6.4 0.00 0.00 0.00 45 1005.3
20260507111004 21 163 3.2 6.4 0.00 0.00 0.00 45 1005.5
20260507110904 21 153 1.6 6.4 0.00 0.00 0.00 45 1005.3
20260507110804 21 141 1.6 6.4 0.00 0.00 0.00 45 1005.5
20260507110704 21 147 1.6 6.4 0.00 0.00 0.00 45 1005.4
20260507110603 21 159 1.6 4.8 0.00 0.00 0.00 44 1005.4
20260507110503 21 157 1.6 4.8 0.00 0.00 0.00 44 1005.5
20260507110403 21 157 1.6 4.8 0.00 0.00 0.00 44 1005.4
20260507110303 21 161 1.6 4.8 0.00 0.00 0.00 44 1005.4
20260507110203 21 161 1.6 4.8 0.00 0.00 0.00 44 1005.5
20260507110103 21 162 1.6 4.8 0.00 0.00 0.00 44 1005.5
20260507110003 21 164 1.6 4.8 0.00 0.00 0.00 44 1005.5
20260507105903 21 162 1.6 4.8 0.00 0.00 0.00 44 1005.5
20260507105803 21 162 1.6 4.8 0.00 0.00 0.00 43 1005.5
20260507105703 21 157 1.6 4.8 0.00 0.00 0.00 43 1005.6
20260507105603 22 172 0.0 3.2 0.00 0.00 0.00 44 1005.5
20260507105503 22 180 0.0 3.2 0.00 0.00 0.00 43 1005.5
20260507105404 22 180 0.0 3.2 0.00 0.00 0.00 43 1005.5
20260507105306 22 180 0.0 3.2 0.00 0.00 0.00 43 1005.6
20260507105204 22 180 1.6 3.2 0.00 0.00 0.00 43 1005.4
20260507105104 22 180 1.6 3.2 0.00 0.00 0.00 43 1005.5
20260507105004 22 186 1.6 3.2 0.00 0.00 0.00 43 1005.6
20260507104904 22 191 1.6 3.2 0.00 0.00 0.00 43 1005.5
20260507104804 22 197 1.6 3.2 0.00 0.00 0.00 43 1005.6
20260507104704 22 197 1.6 3.2 0.00 0.00 0.00 43 1005.6
20260507104604 22 197 1.6 3.2 0.00 0.00 0.00 43 1005.6
20260507104504 22 197 1.6 3.2 0.00 0.00 0.00 43 1005.6
20260507104403 22 195 1.6 4.8 0.00 0.00 0.00 42 1005.7
20260507104303 22 196 1.6 4.8 0.00 0.00 0.00 42 1005.7
20260507104204 22 200 1.6 4.8 0.00 0.00 0.00 42 1005.7
20260507104103 22 212 1.6 4.8 0.00 0.00 0.00 42 1005.7
20260507104003 22 220 1.6 4.8 0.00 0.00 0.00 42 1005.7
20260507103903 22 223 3.2 6.4 0.00 0.00 0.00 42 1005.7
20260507103803 22 224 3.2 6.4 0.00 0.00 0.00 42 1005.6
20260507103703 22 224 3.2 6.4 0.00 0.00 0.00 42 1005.7
20260507103603 22 219 3.2 6.4 0.00 0.00 0.00 42 1005.7
20260507103503 22 215 3.2 6.4 0.00 0.00 0.00 42 1005.7
20260507103106 22 208 3.2 6.4 0.00 0.00 0.00 41 1005.7
20260507102904 22 191 1.6 6.4 0.00 0.00 0.00 42 1005.7
20260507102804 22 178 1.6 3.2 0.00 0.00 0.00 42 1005.7
20260507102704 22 177 1.6 3.2 0.00 0.00 0.00 42 1005.6
20260507102604 22 173 1.6 4.8 0.00 0.00 0.00 40 1005.9
20260507102504 22 168 1.6 4.8 0.00 0.00 0.00 40 1005.7
20260507102403 22 167 1.6 4.8 0.00 0.00 0.00 40 1005.7
20260507102306 22 156 1.6 4.8 0.00 0.00 0.00 40 1005.8
20260507102203 22 161 0.0 4.8 0.00 0.00 0.00 40 1005.6
20260507102103 22 161 1.6 4.8 0.00 0.00 0.00 40 1005.6
20260507102003 22 163 1.6 4.8 0.00 0.00 0.00 40 1005.6
20260507101703 22 162 3.2 8.0 0.00 0.00 0.00 39 1005.7
20260507101603 22 156 4.8 8.0 0.00 0.00 0.00 39 1005.7
20260507101503 22 162 4.8 9.7 0.00 0.00 0.00 39 1005.6
20260507101403 22 168 4.8 9.7 0.00 0.00 0.00 39 1005.6
20260507101303 22 168 4.8 9.7 0.00 0.00 0.00 38 1005.6
20260507101204 22 169 4.8 9.7 0.00 0.00 0.00 38 1005.6
20260507101103 22 170 4.8 9.7 0.00 0.00 0.00 37 1005.6
20260507101003 22 170 4.8 9.7 0.00 0.00 0.00 36 1005.7
20260507100903 22 167 4.8 9.7 0.00 0.00 0.00 36 1005.7
20260507100803 22 165 4.8 9.7 0.00 0.00 0.00 36 1005.7
20260507100703 22 170 4.8 9.7 0.00 0.00 0.00 37 1005.6
20260507100604 22 174 3.2 9.7 0.00 0.00 0.00 36 1005.6
20260507100504 23 173 3.2 6.4 0.00 0.00 0.00 38 1005.6
20260507100404 23 173 3.2 6.4 0.00 0.00 0.00 38 1005.7
20260507100304 23 174 3.2 6.4 0.00 0.00 0.00 38 1005.6
20260507100204 23 172 3.2 6.4 0.00 0.00 0.00 38 1005.6
20260507100104 23 171 4.8 6.4 0.00 0.00 0.00 38 1005.6
20260507100004 23 165 4.8 8.0 0.00 0.00 0.00 38 1005.7
20260507095904 23 164 4.8 8.0 0.00 0.00 0.00 38 1005.6
20260507095803 23 164 4.8 8.0 0.00 0.00 0.00 39 1005.6
20260507095703 23 163 4.8 8.0 0.00 0.00 0.00 40 1005.7
20260507095603 23 165 4.8 8.0 0.00 0.00 0.00 40 1005.6
20260507095503 23 166 4.8 8.0 0.00 0.00 0.00 40 1005.6
20260507095403 22 163 4.8 8.0 0.00 0.00 0.00 40 1005.7
20260507095305 22 158 4.8 8.0 0.00 0.00 0.00 40 1005.6
20260507095203 22 155 4.8 8.0 0.00 0.00 0.00 40 1005.6
20260507095103 22 152 4.8 8.0 0.00 0.00 0.00 40 1005.6
20260507095003 22 156 4.8 6.4 0.00 0.00 0.00 40 1005.4
20260507094903 22 156 3.2 6.4 0.00 0.00 0.00 40 1005.7
20260507094803 22 154 4.8 6.4 0.00 0.00 0.00 39 1005.7
20260507094704 22 155 4.8 6.4 0.00 0.00 0.00 41 1005.6
20260507094604 22 151 4.8 6.4 0.00 0.00 0.00 41 1005.5
20260507094504 22 146 4.8 6.4 0.00 0.00 0.00 41 1005.6
20260507094404 22 149 4.8 6.4 0.00 0.00 0.00 41 1005.5
20260507094304 22 153 4.8 6.4 0.00 0.00 0.00 42 1005.7
20260507094204 22 153 4.8 6.4 0.00 0.00 0.00 41 1005.6
20260507094104 22 155 4.8 6.4 0.00 0.00 0.00 41 1005.6
20260507094004 22 155 4.8 6.4 0.00 0.00 0.00 41 1005.6
20260507093904 22 155 4.8 6.4 0.00 0.00 0.00 42 1005.5
20260507093803 21 156 4.8 6.4 0.00 0.00 0.00 41 1005.5
20260507093703 21 153 4.8 6.4 0.00 0.00 0.00 41 1005.5
20260507093603 22 156 3.2 6.4 0.00 0.00 0.00 41 1005.4
20260507093503 22 159 3.2 6.4 0.00 0.00 0.00 42 1005.5
20260507093403 22 151 3.2 9.7 0.00 0.00 0.00 41 1005.4
20260507093303 22 150 3.2 9.7 0.00 0.00 0.00 42 1005.6
20260507093203 22 157 3.2 9.7 0.00 0.00 0.00 42 1005.4
20260507093103 21 160 4.8 9.7 0.00 0.00 0.00 42 1005.5
20260507093004 21 160 4.8 9.7 0.00 0.00 0.00 42 1005.5
20260507092905 21 163 3.2 9.7 0.00 0.00 0.00 42 1005.5
20260507092804 21 163 3.2 9.7 0.00 0.00 0.00 42 1005.5
20260507092704 21 164 4.8 9.7 0.00 0.00 0.00 42 1005.5
20260507092604 21 163 4.8 9.7 0.00 0.00 0.00 41 1005.6
20260507092504 21 166 4.8 9.7 0.00 0.00 0.00 41 1005.6
20260507092404 21 171 6.4 11.3 0.00 0.00 0.00 41 1005.5
20260507092306 21 173 4.8 11.3 0.00 0.00 0.00 41 1005.6
20260507092204 21 169 4.8 11.3 0.00 0.00 0.00 41 1005.6
20260507092104 21 165 4.8 11.3 0.00 0.00 0.00 41 1005.6
20260507092004 21 161 6.4 11.3 0.00 0.00 0.00 41 1005.6
20260507091704 21 153 6.4 11.3 0.00 0.00 0.00 42 1005.6
20260507091604 21 153 6.4 11.3 0.00 0.00 0.00 41 1005.5
20260507091504 21 156 6.4 11.3 0.00 0.00 0.00 41 1005.6
20260507091404 21 160 4.8 11.3 0.00 0.00 0.00 41 1005.6
20260507091304 21 158 4.8 11.3 0.00 0.00 0.00 42 1005.7
20260507091204 21 165 3.2 6.4 0.00 0.00 0.00 42 1005.8
20260507091104 21 167 3.2 6.4 0.00 0.00 0.00 43 1005.6
20260507091004 21 166 3.2 6.4 0.00 0.00 0.00 43 1005.7
20260507090903 21 165 3.2 6.4 0.00 0.00 0.00 43 1005.6
20260507090803 21 170 3.2 6.4 0.00 0.00 0.00 43 1005.6
20260507090704 21 176 3.2 6.4 0.00 0.00 0.00 43 1005.7
20260507090603 21 179 3.2 6.4 0.00 0.00 0.00 43 1005.7
20260507090503 21 178 3.2 6.4 0.00 0.00 0.00 48 1005.8
20260507090403 21 173 3.2 6.4 0.00 0.00 0.00 48 1005.6
20260507090303 21 169 3.2 6.4 0.00 0.00 0.00 48 1005.7
20260507090203 21 162 3.2 6.4 0.00 0.00 0.00 48 1005.5
20260507090103 21 161 3.2 6.4 0.00 0.00 0.00 48 1005.6
20260507090004 21 162 3.2 6.4 0.00 0.00 0.00 48 1005.7
20260507085903 21 159 4.8 6.4 0.00 0.00 0.00 48 1005.6
20260507085803 21 160 4.8 6.4 0.00 0.00 0.00 48 1005.7
20260507085703 21 159 4.8 6.4 0.00 0.00 0.00 48 1005.7
20260507085604 21 158 4.8 6.4 0.00 0.00 0.00 48 1005.7
20260507085504 21 159 4.8 6.4 0.00 0.00 0.00 48 1005.8
20260507085404 21 163 3.2 6.4 0.00 0.00 0.00 49 1005.7
20260507085306 21 164 3.2 4.8 0.00 0.00 0.00 50 1005.8
20260507085205 21 171 3.2 4.8 0.00 0.00 0.00 50 1005.6
20260507085104 21 167 3.2 6.4 0.00 0.00 0.00 50 1005.8
20260507085004 21 163 3.2 6.4 0.00 0.00 0.00 51 1005.8
20260507084904 21 161 3.2 6.4 0.00 0.00 0.00 51 1005.9
20260507084803 21 157 3.2 6.4 0.00 0.00 0.00 51 1005.7
20260507084703 21 157 3.2 6.4 0.00 0.00 0.00 51 1005.7
20260507084604 21 155 4.8 8.0 0.00 0.00 0.00 52 1005.7
20260507084503 21 152 4.8 8.0 0.00 0.00 0.00 52 1005.8
20260507084403 21 151 3.2 8.0 0.00 0.00 0.00 52 1005.8
20260507084304 21 153 3.2 8.0 0.00 0.00 0.00 51 1005.8
20260507084203 20 153 3.2 8.0 0.00 0.00 0.00 51 1005.8
20260507084104 20 159 3.2 8.0 0.00 0.00 0.00 51 1005.8
20260507084003 20 160 3.2 8.0 0.00 0.00 0.00 51 1005.7
20260507083904 20 166 3.2 8.0 0.00 0.00 0.00 51 1005.6
20260507083803 20 171 3.2 8.0 0.00 0.00 0.00 51 1005.8
20260507083703 20 171 3.2 8.0 0.00 0.00 0.00 51 1005.8
20260507083603 20 174 3.2 8.0 0.00 0.00 0.00 51 1005.6
20260507083503 20 178 3.2 4.8 0.00 0.00 0.00 53 1005.7
20260507083403 20 177 3.2 4.8 0.00 0.00 0.00 54 1005.6
20260507083303 20 175 3.2 4.8 0.00 0.00 0.00 54 1005.8
20260507083203 20 176 3.2 4.8 0.00 0.00 0.00 54 1005.7
20260507083103 20 176 3.2 4.8 0.00 0.00 0.00 54 1005.6
20260507083003 20 176 3.2 4.8 0.00 0.00 0.00 55 1005.6
20260507082903 20 175 3.2 4.8 0.00 0.00 0.00 55 1005.7
20260507082805 20 174 4.8 4.8 0.00 0.00 0.00 55 1005.7
20260507082704 20 173 4.8 4.8 0.00 0.00 0.00 55 1005.6
20260507082604 20 172 4.8 4.8 0.00 0.00 0.00 55 1005.7
20260507082504 20 170 4.8 4.8 0.00 0.00 0.00 55 1005.6
20260507082404 20 168 4.8 8.0 0.00 0.00 0.00 55 1005.6
20260507082306 20 168 3.2 8.0 0.00 0.00 0.00 55 1005.5
20260507082204 20 160 3.2 8.0 0.00 0.00 0.00 56 1005.5
20260507082104 20 151 4.8 8.0 0.00 0.00 0.00 56 1005.5
20260507082004 20 143 4.8 8.0 0.00 0.00 0.00 56 1005.6
20260507081704 20 154 6.4 8.0 0.00 0.00 0.00 54 1005.6
20260507081604 20 151 6.4 8.0 0.00 0.00 0.00 54 1005.5
20260507081504 19 148 6.4 8.0 0.00 0.00 0.00 53 1005.5
20260507081404 19 146 8.0 8.0 0.00 0.00 0.00 53 1005.4
20260507081304 19 141 6.4 8.0 0.00 0.00 0.00 53 1005.5
20260507081203 19 141 8.0 8.0 0.00 0.00 0.00 53 1005.5
20260507081103 19 141 8.0 8.0 0.00 0.00 0.00 53 1005.6
20260507081003 18 138 8.0 8.0 0.00 0.00 0.00 53 1005.3
20260507080903 18 140 8.0 8.0 0.00 0.00 0.00 53 1005.5
20260507080803 18 139 6.4 8.0 0.00 0.00 0.00 54 1005.5
20260507080703 18 141 6.4 6.4 0.00 0.00 0.00 54 1005.6
20260507080603 18 142 6.4 6.4 0.00 0.00 0.00 59 1005.5
20260507080503 18 142 6.4 6.4 0.00 0.00 0.00 59 1005.3
20260507080404 18 143 6.4 6.4 0.00 0.00 0.00 59 1005.4
20260507080304 18 143 6.4 6.4 0.00 0.00 0.00 59 1005.4
20260507080204 18 144 6.4 6.4 0.00 0.00 0.00 59 1005.3
20260507080104 18 148 4.8 6.4 0.00 0.00 0.00 59 1005.4
20260507080004 18 150 4.8 6.4 0.00 0.00 0.00 59 1005.3
20260507075904 18 150 4.8 6.4 0.00 0.00 0.00 59 1005.2
20260507075804 17 151 4.8 6.4 0.00 0.00 0.00 60 1005.3
20260507075704 17 151 4.8 6.4 0.00 0.00 0.00 60 1005.2
20260507075604 17 152 4.8 6.4 0.00 0.00 0.00 60 1005.3
20260507075504 17 157 4.8 6.4 0.00 0.00 0.00 60 1005.2
20260507075403 17 158 4.8 6.4 0.00 0.00 0.00 61 1005.2
20260507075306 17 164 4.8 6.4 0.00 0.00 0.00 61 1005.4
20260507075203 17 166 4.8 6.4 0.00 0.00 0.00 61 1005.3
20260507075104 17 163 4.8 8.0 0.00 0.00 0.00 65 1005.4
20260507075003 17 161 4.8 8.0 0.00 0.00 0.00 64 1005.2
20260507074903 17 160 4.8 8.0 0.00 0.00 0.00 64 1005.2
20260507074803 17 158 4.8 8.0 0.00 0.00 0.00 64 1005.2
20260507074703 17 161 4.8 8.0 0.00 0.00 0.00 65 1005.2
20260507074603 17 160 4.8 8.0 0.00 0.00 0.00 65 1005.2
20260507074503 17 157 4.8 8.0 0.00 0.00 0.00 65 1005.2
20260507074403 17 159 4.8 8.0 0.00 0.00 0.00 65 1005.2
20260507074303 16 154 4.8 8.0 0.00 0.00 0.00 65 1005.3
20260507074204 16 152 4.8 8.0 0.00 0.00 0.00 65 1005.3
20260507074104 16 150 4.8 6.4 0.00 0.00 0.00 65 1005.4
20260507074004 16 151 4.8 6.4 0.00 0.00 0.00 65 1005.5
20260507073904 17 148 4.8 6.4 0.00 0.00 0.00 65 1005.3
20260507073804 17 149 4.8 6.4 0.00 0.00 0.00 65 1005.4
20260507073704 17 144 4.8 6.4 0.00 0.00 0.00 65 1005.4
20260507073604 16 142 4.8 6.4 0.00 0.00 0.00 65 1005.4
20260507073504 16 142 4.8 6.4 0.00 0.00 0.00 65 1005.4
20260507073404 16 141 6.4 6.4 0.00 0.00 0.00 65 1005.4
20260507073303 16 141 6.4 6.4 0.00 0.00 0.00 65 1005.4
20260507073203 16 140 6.4 6.4 0.00 0.00 0.00 65 1005.4
20260507073104 16 139 6.4 6.4 0.00 0.00 0.00 65 1005.4
20260507073004 16 140 6.4 6.4 0.00 0.00 0.00 65 1005.4
20260507072904 16 140 6.4 6.4 0.00 0.00 0.00 65 1005.5
20260507072804 16 139 6.4 6.4 0.00 0.00 0.00 64 1005.7
20260507072703 16 140 6.4 6.4 0.00 0.00 0.00 64 1005.5
20260507072603 16 141 6.4 6.4 0.00 0.00 0.00 64 1005.5
20260507072503 16 142 6.4 6.4 0.00 0.00 0.00 64 1005.6
20260507072403 16 139 6.4 6.4 0.00 0.00 0.00 63 1005.6
20260507072306 16 141 6.4 6.4 0.00 0.00 0.00 63 1005.6
20260507072203 16 143 4.8 6.4 0.00 0.00 0.00 63 1005.6
20260507072103 16 146 4.8 6.4 0.00 0.00 0.00 63 1005.5
20260507072004 16 147 4.8 6.4 0.00 0.00 0.00 63 1005.5
20260507071704 16 156 4.8 6.4 0.00 0.00 0.00 62 1005.5
20260507071604 16 152 4.8 6.4 0.00 0.00 0.00 62 1005.5
20260507071504 16 152 6.4 9.7 0.00 0.00 0.00 62 1005.5
20260507071404 17 151 6.4 9.7 0.00 0.00 0.00 62 1005.6
20260507071304 17 148 6.4 9.7 0.00 0.00 0.00 62 1005.6
20260507071204 17 143 6.4 9.7 0.00 0.00 0.00 62 1005.6
20260507071103 17 148 6.4 9.7 0.00 0.00 0.00 62 1005.6
20260507071004 17 147 6.4 9.7 0.00 0.00 0.00 62 1005.6
20260507070903 17 143 6.4 9.7 0.00 0.00 0.00 62 1005.7
20260507070803 17 143 6.4 9.7 0.00 0.00 0.00 60 1005.5
20260507070703 17 151 6.4 9.7 0.00 0.00 0.00 60 1005.5
20260507070603 17 155 4.8 9.7 0.00 0.00 0.00 61 1005.5
20260507070503 17 154 4.8 8.0 0.00 0.00 0.00 61 1005.5
20260507070403 17 154 4.8 8.0 0.00 0.00 0.00 61 1005.5
20260507070303 18 161 4.8 8.0 0.00 0.00 0.00 62 1005.5
20260507070203 18 166 4.8 6.4 0.00 0.00 0.00 63 1005.6
20260507070006 18 160 4.8 6.4 0.00 0.00 0.00 64 1005.7
20260507065904 18 164 4.8 6.4 0.00 0.00 0.00 64 1005.5
20260507065803 18 165 4.8 6.4 0.00 0.00 0.00 65 1005.5
20260507065703 17 159 4.8 6.4 0.00 0.00 0.00 65 1005.6
20260507065605 17 158 4.8 6.4 0.00 0.00 0.00 65 1005.5
20260507065504 17 156 4.8 6.4 0.00 0.00 0.00 65 1005.6
20260507065404 17 159 4.8 6.4 0.00 0.00 0.00 67 1005.6
20260507065306 17 157 4.8 6.4 0.00 0.00 0.00 67 1005.7
20260507065204 17 155 3.2 6.4 0.00 0.00 0.00 68 1005.7
20260507065104 17 154 3.2 9.7 0.00 0.00 0.00 70 1005.6
20260507065004 17 152 4.8 9.7 0.00 0.00 0.00 71 1005.6
20260507064904 17 144 4.8 9.7 0.00 0.00 0.00 72 1005.5
20260507064804 17 145 4.8 9.7 0.00 0.00 0.00 72 1005.7
20260507064703 17 145 4.8 9.7 0.00 0.00 0.00 73 1005.6
20260507064603 17 144 4.8 9.7 0.00 0.00 0.00 74 1005.5
20260507064504 17 145 4.8 9.7 0.00 0.00 0.00 76 1005.6
20260507064403 17 143 4.8 9.7 0.00 0.00 0.00 76 1005.7
20260507064303 17 144 4.8 9.7 0.00 0.00 0.00 81 1005.7
20260507064203 17 150 4.8 9.7 0.00 0.00 0.00 82 1005.7
20260507064103 17 151 4.8 9.7 0.00 0.00 0.00 83 1005.5
20260507064003 17 158 4.8 9.7 0.00 0.00 0.00 84 1005.6
20260507063903 17 159 4.8 9.7 0.00 0.00 0.00 83 1005.6
20260507063803 17 153 4.8 8.0 0.00 0.00 0.00 88 1005.8
20260507063703 17 150 4.8 8.0 0.00 0.00 0.00 89 1005.7
20260507063604 17 148 4.8 8.0 0.00 0.00 0.00 90 1005.7
20260507063504 17 143 4.8 8.0 0.00 0.00 0.00 90 1005.6
20260507063404 17 143 4.8 8.0 0.00 0.00 0.00 91 1005.6
20260507063304 17 139 4.8 8.0 0.00 0.00 0.00 92 1005.6
20260507063204 17 132 4.8 8.0 0.00 0.00 0.00 90 1005.6
20260507063104 17 136 4.8 8.0 0.00 0.00 0.00 91 1005.5
20260507063004 17 127 4.8 6.4 0.00 0.00 0.00 94 1005.6
20260507062904 17 127 3.2 6.4 0.00 0.00 0.00 95 1005.4
20260507062804 17 132 3.2 6.4 0.00 0.00 0.00 95 1005.5
20260507062703 16 132 3.2 6.4 0.00 0.00 0.00 95 1005.6
20260507062603 16 131 3.2 6.4 0.00 0.00 0.00 96 1005.5
20260507062503 16 148 3.2 6.4 0.00 0.00 0.00 96 1005.4
20260507062403 16 153 1.6 4.8 0.00 0.00 0.00 96 1005.6
20260507062306 16 155 3.2 4.8 0.00 0.00 0.00 96 1005.5
20260507062203 16 166 3.2 4.8 0.00 0.00 0.00 97 1005.5
20260507062103 16 150 1.6 4.8 0.00 0.00 0.00 97 1005.6
20260507062003 16 170 1.6 4.8 0.00 0.00 0.00 97 1005.5
20260507061704 16 163 0.0 4.8 0.00 0.00 0.00 100 1005.5
20260507061604 16 180 0.0 4.8 0.00 0.00 0.00 100 1005.5
20260507061504 16 180 0.0 4.8 0.00 0.00 0.00 100 1005.4
20260507061404 16 180 0.0 4.8 0.00 0.00 0.00 100 1005.3
20260507061305 16 180 0.0 4.8 0.00 0.00 0.00 100 1005.4
20260507061204 16 0 0.0 0.0 0.00 0.00 0.00 100 1005.4
20260507061105 16 0 0.0 0.0 0.00 0.00 0.00 100 1005.4
20260507061004 15 0 0.0 0.0 0.00 0.00 0.00 100 1005.4
20260507060903 15 0 0.0 0.0 0.00 0.00 0.00 100 1005.4
20260507060803 15 0 0.0 0.0 0.00 0.00 0.00 100 1005.4
20260507060703 15 0 0.0 0.0 0.00 0.00 0.00 100 1005.4
20260507060603 15 0 0.0 0.0 0.00 0.00 0.00 100 1005.3
20260507060503 15 0 0.0 0.0 0.00 0.00 0.00 100 1005.4
20260507060403 15 0 0.0 0.0 0.00 0.00 0.00 100 1005.3
20260507060303 15 0 0.0 0.0 0.00 0.00 0.00 100 1005.3
20260507060203 15 0 0.0 0.0 0.00 0.00 0.00 100 1005.2
20260507060103 15 0 0.0 0.0 0.00 0.00 0.00 100 1005.2
20260507060003 15 0 0.0 0.0 0.00 0.00 0.00 100 1005.4
20260507055903 15 0 0.0 0.0 0.00 0.00 0.00 100 1005.3
20260507055803 15 0 0.0 0.0 0.00 0.00 0.00 100 1005.4
20260507055703 15 0 0.0 0.0 0.00 0.00 0.00 100 1005.4
20260507055603 15 0 0.0 0.0 0.00 0.00 0.00 100 1005.4
20260507055503 15 0 0.0 0.0 0.00 0.00 0.00 100 1005.3
20260507055403 15 0 0.0 0.0 0.00 0.00 0.00 100 1005.4
20260507055306 15 0 0.0 0.0 0.00 0.00 0.00 100 1005.2
20260507055204 15 0 0.0 0.0 0.00 0.00 0.00 100 1005.5
20260507055104 15 0 0.0 0.0 0.00 0.00 0.00 100 1005.2
20260507055004 15 0 0.0 0.0 0.00 0.00 0.00 100 1005.2
20260507054904 15 0 0.0 0.0 0.00 0.00 0.00 100 1005.4
20260507054804 14 0 0.0 0.0 0.00 0.00 0.00 100 1005.6
20260507054704 14 0 0.0 0.0 0.00 0.00 0.00 100 1005.2
20260507054604 14 0 0.0 0.0 0.00 0.00 0.00 100 1005.3
20260507054504 14 0 0.0 0.0 0.00 0.00 0.00 100 1005.4
20260507054403 14 0 0.0 0.0 0.00 0.00 0.00 100 1005.2
20260507054303 14 0 0.0 0.0 0.00 0.00 0.00 100 1005.4
20260507054203 14 0 0.0 0.0 0.00 0.00 0.00 100 1005.3
20260507054103 14 0 0.0 0.0 0.00 0.00 0.00 100 1005.3
20260507054003 14 0 0.0 0.0 0.00 0.00 0.00 100 1005.3
20260507053903 14 0 0.0 0.0 0.00 0.00 0.00 100 1005.3
20260507053803 14 0 0.0 0.0 0.00 0.00 0.00 100 1005.3
20260507053703 13 0 0.0 0.0 0.00 0.00 0.00 100 1005.1
20260507053603 13 0 0.0 0.0 0.00 0.00 0.00 100 1005.3
20260507053504 13 0 0.0 0.0 0.00 0.00 0.00 100 1005.3
20260507053404 13 0 0.0 0.0 0.00 0.00 0.00 100 1005.3
20260507053304 13 0 0.0 0.0 0.00 0.00 0.00 97 1005.3
20260507053204 13 0 0.0 0.0 0.00 0.00 0.00 97 1005.4
20260507053104 13 0 0.0 0.0 0.00 0.00 0.00 97 1005.3
20260507053004 13 0 0.0 0.0 0.00 0.00 0.00 97 1005.3
20260507052903 13 0 0.0 0.0 0.00 0.00 0.00 97 1005.4
20260507052803 13 0 0.0 0.0 0.00 0.00 0.00 97 1005.3
20260507052703 13 0 0.0 0.0 0.00 0.00 0.00 97 1005.2
20260507052603 13 0 0.0 0.0 0.00 0.00 0.00 97 1005.2
20260507052503 13 0 0.0 0.0 0.00 0.00 0.00 97 1005.3
20260507052403 12 0 0.0 0.0 0.00 0.00 0.00 97 1005.3
20260507052306 12 0 0.0 0.0 0.00 0.00 0.00 97 1005.1
20260507052203 12 0 0.0 0.0 0.00 0.00 0.00 97 1005.2
20260507052103 12 0 0.0 0.0 0.00 0.00 0.00 97 1005.2
20260507052003 12 0 0.0 0.0 0.00 0.00 0.00 99 1005.1
20260507051703 12 0 0.0 0.0 0.00 0.00 0.00 99 1005.1
20260507051603 12 0 0.0 0.0 0.00 0.00 0.00 99 1005.1
20260507051503 12 0 0.0 0.0 0.00 0.00 0.00 99 1005.1
20260507051403 11 0 0.0 0.0 0.00 0.00 0.00 99 1005.2
20260507051303 11 0 0.0 0.0 0.00 0.00 0.00 99 1005.2
20260507051203 11 0 0.0 0.0 0.00 0.00 0.00 99 1005.2
20260507051003 11 0 0.0 0.0 0.00 0.00 0.00 99 1005.3
20260507050903 11 0 0.0 0.0 0.00 0.00 0.00 99 1005.2
20260507050803 11 0 0.0 0.0 0.00 0.00 0.00 99 1005.2
20260507050704 11 0 0.0 0.0 0.00 0.00 0.00 99 1005.3
20260507050604 11 0 0.0 0.0 0.00 0.00 0.00 99 1005.3
20260507050504 11 0 0.0 0.0 0.00 0.00 0.00 99 1005.2
20260507050404 11 0 0.0 0.0 0.00 0.00 0.00 99 1005.3
20260507050304 11 0 0.0 0.0 0.00 0.00 0.00 99 1005.4
20260507050204 11 0 0.0 0.0 0.00 0.00 0.00 99 1005.4
20260507050104 11 0 0.0 0.0 0.00 0.00 0.00 99 1005.4
20260507050004 11 0 0.0 0.0 0.00 0.00 0.00 99 1005.5
20260507045903 11 0 0.0 0.0 0.00 0.00 0.00 99 1005.7
20260507045803 11 0 0.0 0.0 0.00 0.00 0.00 99 1005.5
20260507045703 11 0 0.0 0.0 0.00 0.00 0.00 99 1005.5
20260507045603 11 0 0.0 0.0 0.00 0.00 0.00 99 1005.7
20260507045503 11 0 0.0 0.0 0.00 0.00 0.00 99 1005.5
20260507045403 11 0 0.0 0.0 0.00 0.00 0.00 99 1005.7
20260507045306 11 0 0.0 0.0 0.00 0.00 0.00 99 1005.7
20260507045203 11 0 0.0 0.0 0.00 0.00 0.00 99 1005.6
20260507045103 11 0 0.0 0.0 0.00 0.00 0.00 99 1005.6
20260507045003 11 0 0.0 0.0 0.00 0.00 0.00 99 1005.8
20260507044903 11 0 0.0 0.0 0.00 0.00 0.00 99 1005.7
20260507044803 11 0 0.0 0.0 0.00 0.00 0.00 99 1005.6
20260507044703 11 0 0.0 0.0 0.00 0.00 0.00 99 1005.7
20260507044606 11 0 0.0 0.0 0.00 0.00 0.00 99 1005.5
20260507044503 11 0 0.0 0.0 0.00 0.00 0.00 99 1005.6
20260507044404 11 0 0.0 0.0 0.00 0.00 0.00 99 1005.6
20260507044204 11 0 0.0 0.0 0.00 0.00 0.00 99 1005.4
20260507044004 10 0 0.0 0.0 0.00 0.00 0.00 99 1005.5
20260507043904 10 0 0.0 0.0 0.00 0.00 0.00 100 1005.5
20260507043804 10 0 0.0 0.0 0.00 0.00 0.00 100 1005.5
20260507043704 10 0 0.0 0.0 0.00 0.00 0.00 100 1005.4
20260507043604 10 0 0.0 0.0 0.00 0.00 0.00 100 1005.4
20260507043504 10 0 0.0 0.0 0.00 0.00 0.00 100 1005.5
20260507043403 10 0 0.0 0.0 0.00 0.00 0.00 100 1005.4
20260507043304 10 0 0.0 0.0 0.00 0.00 0.00 100 1005.4
20260507043203 10 0 0.0 0.0 0.00 0.00 0.00 100 1005.4
20260507043103 10 0 0.0 0.0 0.00 0.00 0.00 100 1005.5
20260507043003 10 0 0.0 0.0 0.00 0.00 0.00 100 1005.4
20260507042903 10 0 0.0 0.0 0.00 0.00 0.00 100 1005.4
20260507042803 10 0 0.0 0.0 0.00 0.00 0.00 100 1005.4
20260507042703 10 0 0.0 0.0 0.00 0.00 0.00 100 1005.6
20260507042603 10 0 0.0 0.0 0.00 0.00 0.00 100 1005.3
20260507042503 10 0 0.0 0.0 0.00 0.00 0.00 100 1005.3
20260507042403 10 0 0.0 0.0 0.00 0.00 0.00 100 1005.4
20260507042306 10 0 0.0 0.0 0.00 0.00 0.00 100 1005.2
20260507042204 10 0 0.0 0.0 0.00 0.00 0.00 100 1005.4
20260507042104 10 0 0.0 0.0 0.00 0.00 0.00 100 1005.2
20260507042004 10 0 0.0 0.0 0.00 0.00 0.00 100 1005.3
20260507041704 10 0 0.0 0.0 0.00 0.00 0.00 100 1005.3
20260507041603 10 0 0.0 0.0 0.00 0.00 0.00 100 1005.3
20260507041503 10 0 0.0 0.0 0.00 0.00 0.00 100 1005.2
20260507041403 10 0 0.0 0.0 0.00 0.00 0.00 100 1005.2
20260507041303 10 0 0.0 0.0 0.00 0.00 0.00 100 1005.2
20260507041203 10 0 0.0 0.0 0.00 0.00 0.00 100 1005.2
20260507041103 10 0 0.0 0.0 0.00 0.00 0.00 100 1005.1
20260507041003 10 0 0.0 0.0 0.00 0.00 0.00 100 1005.1
20260507040903 10 0 0.0 0.0 0.00 0.00 0.00 100 1005.0
20260507040804 10 0 0.0 0.0 0.00 0.00 0.00 100 1005.0
20260507040703 11 0 0.0 0.0 0.00 0.00 0.00 100 1005.0
20260507040603 11 0 0.0 0.0 0.00 0.00 0.00 100 1005.0
20260507040504 11 0 0.0 0.0 0.00 0.00 0.00 100 1005.0
20260507040404 11 0 0.0 0.0 0.00 0.00 0.00 100 1005.0
20260507040304 11 0 0.0 0.0 0.00 0.00 0.00 100 1005.0
20260507040204 11 0 0.0 0.0 0.00 0.00 0.00 100 1005.1
20260507040104 11 0 0.0 0.0 0.00 0.00 0.00 100 1005.0
20260507040004 11 0 0.0 0.0 0.00 0.00 0.00 100 1005.0
20260507035904 11 0 0.0 0.0 0.00 0.00 0.00 100 1005.0
20260507035804 11 0 0.0 0.0 0.00 0.00 0.00 100 1005.0
20260507035704 11 0 0.0 0.0 0.00 0.00 0.00 100 1005.1
20260507035603 11 0 0.0 0.0 0.00 0.00 0.00 100 1005.1
20260507035504 11 0 0.0 0.0 0.00 0.00 0.00 100 1005.0
20260507035403 11 0 0.0 0.0 0.00 0.00 0.00 100 1005.1
20260507035306 11 0 0.0 0.0 0.00 0.00 0.00 100 1005.0
20260507035203 11 0 0.0 0.0 0.00 0.00 0.00 100 1005.0
20260507035103 11 0 0.0 0.0 0.00 0.00 0.00 100 1004.9
20260507035003 11 0 0.0 0.0 0.00 0.00 0.00 100 1005.0
20260507034903 11 0 0.0 0.0 0.00 0.00 0.00 100 1004.9
20260507034803 11 0 0.0 0.0 0.00 0.00 0.00 100 1004.9
20260507034703 11 0 0.0 0.0 0.00 0.00 0.00 100 1004.9
20260507034603 11 0 0.0 0.0 0.00 0.00 0.00 100 1004.8
20260507034503 11 0 0.0 0.0 0.00 0.00 0.00 100 1004.7
20260507034404 11 0 0.0 0.0 0.00 0.00 0.00 100 1004.8
20260507034304 11 0 0.0 0.0 0.00 0.00 0.00 100 1004.7
20260507034204 11 0 0.0 0.0 0.00 0.00 0.00 100 1004.8
20260507034104 11 0 0.0 0.0 0.00 0.00 0.00 100 1004.7
20260507034004 11 0 0.0 0.0 0.00 0.00 0.00 100 1004.7
20260507033904 11 0 0.0 0.0 0.00 0.00 0.00 100 1004.9
20260507033804 11 0 0.0 0.0 0.00 0.00 0.00 100 1004.8
20260507033704 11 0 0.0 0.0 0.00 0.00 0.00 100 1004.7
20260507033604 11 0 0.0 0.0 0.00 0.00 0.00 100 1004.7
20260507033503 11 0 0.0 0.0 0.00 0.00 0.00 100 1004.8
20260507033403 11 0 0.0 0.0 0.00 0.00 0.00 100 1004.8
20260507033303 11 0 0.0 0.0 0.00 0.00 0.00 100 1004.8
20260507033203 11 0 0.0 0.0 0.00 0.00 0.00 100 1004.8
20260507033103 11 0 0.0 0.0 0.00 0.00 0.00 100 1004.8
20260507033003 11 0 0.0 0.0 0.00 0.00 0.00 100 1004.7
20260507032903 11 0 0.0 0.0 0.00 0.00 0.00 100 1004.7
20260507032803 11 0 0.0 0.0 0.00 0.00 0.00 100 1004.7
20260507032703 11 0 0.0 0.0 0.00 0.00 0.00 100 1004.8
20260507032603 11 0 0.0 0.0 0.00 0.00 0.00 100 1004.7
20260507032504 11 0 0.0 0.0 0.00 0.00 0.00 100 1004.7
20260507032404 11 0 0.0 0.0 0.00 0.00 0.00 100 1004.8
20260507032306 11 0 0.0 0.0 0.00 0.00 0.00 100 1004.7
20260507032204 11 0 0.0 0.0 0.00 0.00 0.00 100 1004.7
20260507032104 11 0 0.0 0.0 0.00 0.00 0.00 100 1004.8
20260507032004 11 0 0.0 0.0 0.00 0.00 0.00 100 1004.7
20260507031703 11 0 0.0 0.0 0.00 0.00 0.00 100 1004.7
20260507031604 11 0 0.0 0.0 0.00 0.00 0.00 100 1004.8
20260507031504 11 0 0.0 0.0 0.00 0.00 0.00 100 1004.8
20260507031404 11 0 0.0 0.0 0.00 0.00 0.00 100 1004.8
20260507031304 11 0 0.0 0.0 0.00 0.00 0.00 100 1004.8
20260507031204 11 0 0.0 0.0 0.00 0.00 0.00 100 1004.8
20260507031103 12 0 0.0 0.0 0.00 0.00 0.00 100 1004.8
20260507031003 12 0 0.0 0.0 0.00 0.00 0.00 100 1004.8
20260507030904 12 0 0.0 0.0 0.00 0.00 0.00 100 1004.8
20260507030803 12 0 0.0 0.0 0.00 0.00 0.00 100 1004.8
20260507030704 12 0 0.0 0.0 0.00 0.00 0.00 100 1004.9
20260507030603 12 0 0.0 0.0 0.00 0.00 0.00 100 1005.0
20260507030503 12 0 0.0 0.0 0.00 0.00 0.00 100 1004.9
20260507030403 12 0 0.0 0.0 0.00 0.00 0.00 100 1004.8
20260507030303 12 0 0.0 0.0 0.00 0.00 0.00 100 1004.9
20260507030203 12 0 0.0 0.0 0.00 0.00 0.00 100 1004.9
20260507030110 12 0 0.0 0.0 0.00 0.00 0.00 100 1004.8
20260507030003 12 0 0.0 0.0 0.00 0.00 0.00 100 1005.0
20260507025904 12 0 0.0 0.0 0.00 0.00 0.00 100 1004.9
20260507025804 12 0 0.0 0.0 0.00 0.00 0.00 100 1005.1
20260507025704 12 0 0.0 0.0 0.00 0.00 0.00 100 1005.0
20260507025604 12 0 0.0 0.0 0.00 0.00 0.00 100 1005.1
20260507025504 12 0 0.0 0.0 0.00 0.00 0.00 100 1005.1
20260507025404 12 0 0.0 0.0 0.00 0.00 0.00 100 1005.0
20260507025306 12 0 0.0 0.0 0.00 0.00 0.00 100 1004.9
20260507025204 12 0 0.0 0.0 0.00 0.00 0.00 100 1005.0
20260507025104 12 0 0.0 0.0 0.00 0.00 0.00 100 1005.1
20260507025003 12 0 0.0 0.0 0.00 0.00 0.00 100 1005.0
20260507024903 12 0 0.0 0.0 0.00 0.00 0.00 100 1004.9
20260507024803 12 0 0.0 0.0 0.00 0.00 0.00 100 1005.0
20260507024703 12 0 0.0 0.0 0.00 0.00 0.00 100 1005.0
20260507024603 12 0 0.0 0.0 0.00 0.00 0.00 100 1005.0
20260507024503 12 0 0.0 0.0 0.00 0.00 0.00 100 1004.9
20260507024403 12 0 0.0 0.0 0.00 0.00 0.00 100 1005.1
20260507024303 12 0 0.0 0.0 0.00 0.00 0.00 100 1004.9
20260507024203 12 0 0.0 0.0 0.00 0.00 0.00 100 1005.0
20260507024103 12 0 0.0 0.0 0.00 0.00 0.00 100 1005.0
20260507024003 12 0 0.0 0.0 0.00 0.00 0.00 100 1005.0
20260507023903 12 0 0.0 0.0 0.00 0.00 0.00 100 1004.9
20260507023803 12 0 0.0 0.0 0.00 0.00 0.00 100 1005.0
20260507023703 12 0 0.0 0.0 0.00 0.00 0.00 100 1005.0
20260507023603 12 0 0.0 0.0 0.00 0.00 0.00 100 1004.9
20260507023504 12 0 0.0 0.0 0.00 0.00 0.00 100 1005.1
20260507023404 12 0 0.0 0.0 0.00 0.00 0.00 100 1005.0
20260507023304 12 0 0.0 0.0 0.00 0.00 0.00 100 1005.0
20260507023204 12 0 0.0 0.0 0.00 0.00 0.00 100 1005.1
20260507023104 12 0 0.0 0.0 0.00 0.00 0.00 100 1005.0
20260507023004 12 0 0.0 0.0 0.00 0.00 0.00 100 1005.1
20260507022904 12 0 0.0 0.0 0.00 0.00 0.00 100 1005.0
20260507022804 12 0 0.0 0.0 0.00 0.00 0.00 100 1005.1
20260507022704 12 0 0.0 0.0 0.00 0.00 0.00 100 1005.1
20260507022603 12 0 0.0 0.0 0.00 0.00 0.00 100 1005.2
20260507022503 12 0 0.0 0.0 0.00 0.00 0.00 100 1005.1
20260507022403 12 0 0.0 0.0 0.00 0.00 0.00 100 1005.2
20260507022306 12 0 0.0 0.0 0.00 0.00 0.00 100 1005.1
20260507022203 12 0 0.0 0.0 0.00 0.00 0.00 100 1005.3
20260507022103 12 0 0.0 0.0 0.00 0.00 0.00 100 1005.2
20260507022003 12 0 0.0 0.0 0.00 0.00 0.00 100 1005.2
20260507021703 12 0 0.0 0.0 0.00 0.00 0.00 100 1005.2
20260507021603 12 0 0.0 0.0 0.00 0.00 0.00 100 1005.3
20260507021503 12 0 0.0 0.0 0.00 0.00 0.00 100 1005.3
20260507021404 12 0 0.0 0.0 0.00 0.00 0.00 100 1005.2
20260507021303 12 0 0.0 0.0 0.00 0.00 0.00 100 1005.4
20260507021204 12 0 0.0 0.0 0.00 0.00 0.00 100 1005.3
20260507021104 12 0 0.0 0.0 0.00 0.00 0.00 100 1005.2
20260507021004 12 0 0.0 0.0 0.00 0.00 0.00 100 1005.2
20260507020904 12 0 0.0 0.0 0.00 0.00 0.00 97 1005.3
20260507020804 12 0 0.0 0.0 0.00 0.00 0.00 97 1005.2
20260507020704 12 0 0.0 0.0 0.00 0.00 0.00 97 1005.2
20260507020604 12 0 0.0 0.0 0.00 0.00 0.00 97 1005.2
20260507020504 12 0 0.0 0.0 0.00 0.00 0.00 97 1005.2
20260507020403 12 0 0.0 0.0 0.00 0.00 0.00 97 1005.2
20260507020303 12 0 0.0 0.0 0.00 0.00 0.00 97 1005.3
20260507020203 12 0 0.0 0.0 0.00 0.00 0.00 97 1005.1
20260507020103 12 0 0.0 0.0 0.00 0.00 0.00 97 1005.2
20260507020003 12 0 0.0 0.0 0.00 0.00 0.00 97 1005.1
20260507015903 12 0 0.0 0.0 0.00 0.00 0.00 97 1005.1
20260507015803 12 0 0.0 0.0 0.00 0.00 0.00 97 1005.2
20260507015703 12 0 0.0 0.0 0.00 0.00 0.00 97 1005.2
20260507015603 12 0 0.0 0.0 0.00 0.00 0.00 97 1005.3
20260507015503 12 0 0.0 0.0 0.00 0.00 0.00 97 1005.3
20260507015403 11 0 0.0 0.0 0.00 0.00 0.00 97 1005.2
20260507015306 11 0 0.0 0.0 0.00 0.00 0.00 97 1005.3
20260507015204 11 0 0.0 0.0 0.00 0.00 0.00 97 1005.3
20260507015104 11 0 0.0 0.0 0.00 0.00 0.00 97 1005.2
20260507015004 11 0 0.0 0.0 0.00 0.00 0.00 97 1005.1
20260507014904 11 0 0.0 0.0 0.00 0.00 0.00 97 1005.3
20260507014804 11 0 0.0 0.0 0.00 0.00 0.00 97 1005.2
20260507014704 11 0 0.0 0.0 0.00 0.00 0.00 97 1005.1
20260507014604 11 0 0.0 0.0 0.00 0.00 0.00 97 1005.2
20260507014504 11 0 0.0 0.0 0.00 0.00 0.00 97 1005.2
20260507014404 11 0 0.0 0.0 0.00 0.00 0.00 97 1005.1
20260507014304 11 0 0.0 0.0 0.00 0.00 0.00 97 1005.1
20260507014203 11 0 0.0 0.0 0.00 0.00 0.00 97 1005.0
20260507014103 11 0 0.0 0.0 0.00 0.00 0.00 97 1005.1
20260507014003 11 0 0.0 0.0 0.00 0.00 0.00 97 1005.1
20260507013903 11 0 0.0 0.0 0.00 0.00 0.00 97 1005.1
20260507013803 11 0 0.0 0.0 0.00 0.00 0.00 97 1005.1
20260507013704 11 0 0.0 0.0 0.00 0.00 0.00 97 1005.1
20260507013603 11 0 0.0 0.0 0.00 0.00 0.00 97 1005.1
20260507013503 11 0 0.0 0.0 0.00 0.00 0.00 97 1005.1
20260507013403 11 0 0.0 0.0 0.00 0.00 0.00 97 1005.1
20260507013305 11 0 0.0 0.0 0.00 0.00 0.00 97 1005.1
20260507013008 11 0 0.0 0.0 0.00 0.00 0.00 97 1005.1
20260507012904 11 0 0.0 0.0 0.00 0.00 0.00 97 1005.2
20260507012804 11 0 0.0 0.0 0.00 0.00 0.00 97 1005.2
20260507012704 11 0 0.0 0.0 0.00 0.00 0.00 97 1005.1
20260507012604 11 0 0.0 0.0 0.00 0.00 0.00 97 1005.2
20260507012504 11 0 0.0 0.0 0.00 0.00 0.00 97 1005.4
20260507012404 11 0 0.0 0.0 0.00 0.00 0.00 97 1005.1
20260507012306 11 0 0.0 0.0 0.00 0.00 0.00 97 1005.2
20260507012204 11 0 0.0 0.0 0.00 0.00 0.00 97 1005.3
20260507012104 11 0 0.0 0.0 0.00 0.00 0.00 97 1005.1
20260507012004 11 0 0.0 0.0 0.00 0.00 0.00 97 1005.2
20260507011703 11 0 0.0 0.0 0.00 0.00 0.00 97 1005.2
20260507011603 11 0 0.0 0.0 0.00 0.00 0.00 97 1005.4
20260507011503 11 0 0.0 0.0 0.00 0.00 0.00 97 1005.3
20260507011404 11 0 0.0 0.0 0.00 0.00 0.00 97 1005.2
20260507011304 11 0 0.0 0.0 0.00 0.00 0.00 97 1005.3
20260507011204 11 0 0.0 0.0 0.00 0.00 0.00 96 1005.2
20260507011104 11 0 0.0 0.0 0.00 0.00 0.00 96 1005.3
20260507011004 11 0 0.0 0.0 0.00 0.00 0.00 96 1005.3
20260507010904 11 0 0.0 0.0 0.00 0.00 0.00 96 1005.3
20260507010804 11 0 0.0 0.0 0.00 0.00 0.00 96 1005.4
20260507010704 11 0 0.0 0.0 0.00 0.00 0.00 96 1005.3
20260507010603 11 0 0.0 0.0 0.00 0.00 0.00 96 1005.3
20260507010503 11 0 0.0 0.0 0.00 0.00 0.00 96 1005.2
20260507010403 11 0 0.0 0.0 0.00 0.00 0.00 96 1005.3
20260507010303 11 0 0.0 0.0 0.00 0.00 0.00 96 1005.3
20260507010203 11 0 0.0 0.0 0.00 0.00 0.00 96 1005.2
20260507010003 11 0 0.0 0.0 0.00 0.00 0.00 96 1005.2
20260507005903 11 0 0.0 0.0 0.00 0.00 0.00 96 1005.3
20260507005803 11 0 0.0 0.0 0.00 0.00 0.00 96 1005.3
20260507005703 11 0 0.0 0.0 0.00 0.00 0.00 96 1005.2
20260507005603 11 0 0.0 0.0 0.00 0.00 0.00 96 1005.3
20260507005504 11 0 0.0 0.0 0.00 0.00 0.00 96 1005.2
20260507005404 11 0 0.0 0.0 0.00 0.00 0.00 96 1005.3
20260507005305 11 0 0.0 0.0 0.00 0.00 0.00 96 1005.3
20260507005204 11 0 0.0 0.0 0.00 0.00 0.00 96 1005.3
20260507005104 11 0 0.0 0.0 0.00 0.00 0.00 96 1005.2
20260507005004 11 0 0.0 0.0 0.00 0.00 0.00 96 1005.3
20260507004904 11 0 0.0 0.0 0.00 0.00 0.00 96 1005.3
20260507004804 11 0 0.0 0.0 0.00 0.00 0.00 96 1005.4
20260507004704 11 0 0.0 0.0 0.00 0.00 0.00 96 1005.3
20260507004604 11 0 0.0 0.0 0.00 0.00 0.00 96 1005.3
20260507004504 11 0 0.0 0.0 0.00 0.00 0.00 96 1005.2
20260507004403 11 0 0.0 0.0 0.00 0.00 0.00 96 1005.4
20260507004303 11 0 0.0 0.0 0.00 0.00 0.00 96 1005.4
20260507004203 11 0 0.0 0.0 0.00 0.00 0.00 96 1005.3
20260507004103 11 0 0.0 0.0 0.00 0.00 0.00 96 1005.4
20260507004003 11 0 0.0 0.0 0.00 0.00 0.00 96 1005.2
20260507003903 11 0 0.0 0.0 0.00 0.00 0.00 96 1005.3
20260507003803 11 0 0.0 0.0 0.00 0.00 0.00 96 1005.2
20260507003703 11 0 0.0 0.0 0.00 0.00 0.00 96 1005.2
20260507003603 11 0 0.0 0.0 0.00 0.00 0.00 96 1005.2
20260507003503 11 0 0.0 0.0 0.00 0.00 0.00 96 1005.3
20260507003404 11 0 0.0 0.0 0.00 0.00 0.00 96 1005.4
20260507003304 11 0 0.0 0.0 0.00 0.00 0.00 96 1005.2
20260507003204 11 0 0.0 0.0 0.00 0.00 0.00 96 1005.3
20260507003104 11 0 0.0 0.0 0.00 0.00 0.00 96 1005.4
20260507003004 11 0 0.0 0.0 0.00 0.00 0.00 96 1005.3
20260507002904 11 0 0.0 0.0 0.00 0.00 0.00 96 1005.5
20260507002804 11 0 0.0 0.0 0.00 0.00 0.00 96 1005.3
20260507002704 11 0 0.0 0.0 0.00 0.00 0.00 96 1005.4
20260507002604 11 0 0.0 0.0 0.00 0.00 0.00 96 1005.4
20260507002504 11 0 0.0 0.0 0.00 0.00 0.00 96 1005.4
20260507002403 11 0 0.0 0.0 0.00 0.00 0.00 96 1005.4
20260507002306 11 0 0.0 0.0 0.00 0.00 0.00 96 1005.4
20260507002203 12 0 0.0 0.0 0.00 0.00 0.00 96 1005.5
20260507002103 12 0 0.0 0.0 0.00 0.00 0.00 96 1005.5
20260507002004 12 0 0.0 0.0 0.00 0.00 0.00 96 1005.5
20260507001704 12 0 0.0 0.0 0.00 0.00 0.00 96 1005.6
20260507001603 12 0 0.0 0.0 0.00 0.00 0.00 96 1005.5
20260507001503 12 0 0.0 0.0 0.00 0.00 0.00 96 1005.6
20260507001403 12 0 0.0 0.0 0.00 0.00 0.00 96 1005.5
20260507001304 12 0 0.0 0.0 0.00 0.00 0.00 96 1005.4
20260507001203 12 0 0.0 0.0 0.00 0.00 0.00 96 1005.5
20260507001103 12 0 0.0 0.0 0.00 0.00 0.00 96 1005.4
20260507001003 12 0 0.0 0.0 0.00 0.00 0.00 96 1005.3
20260507000903 12 0 0.0 0.0 0.00 0.00 0.00 96 1005.5
20260507000803 12 90 0.0 3.2 0.00 0.00 0.00 96 1005.3
20260507000703 12 97 0.0 4.8 0.00 0.00 0.00 96 1005.4
20260507000603 12 175 0.0 4.8 0.00 0.00 0.00 95 1005.4
20260507000505 12 175 0.0 4.8 0.00 0.00 0.00 95 1005.4
20260507000405 12 160 0.0 4.8 0.00 0.00 0.00 95 1005.4
20260507000306 12 137 1.6 4.8 0.00 0.00 0.00 95 1005.4
20260507000205 12 107 1.6 4.8 0.00 0.00 0.00 95 1005.3
20260507000104 12 75 1.6 4.8 0.00 0.00 0.00 95 1005.3
20260507000004 12 71 1.6 4.8 0.00 0.00 0.00 95 1005.3
20260506235904 12 66 1.6 4.8 0.00 0.00 0.00 95 1005.3
20260506235804 12 28 1.6 4.8 0.00 0.00 0.00 95 1005.3
20260506235704 12 32 1.6 4.8 0.00 0.00 0.00 95 1005.3
20260506235604 12 29 1.6 3.2 0.00 0.00 0.00 95 1005.3
20260506235503 12 29 1.6 3.2 0.00 0.00 0.00 95 1005.3
20260506235403 12 25 1.6 3.2 0.00 0.00 0.00 95 1005.3
20260506235306 12 36 1.6 4.8 0.00 0.00 0.00 95 1005.4
20260506235203 12 33 1.6 4.8 0.00 0.00 0.00 95 1005.4
20260506235103 11 101 1.6 4.8 0.00 0.00 0.00 95 1005.4
20260506235003 11 180 0.0 4.8 0.00 0.00 0.00 95 1005.3
20260506234903 11 180 1.6 4.8 0.00 0.00 0.00 95 1005.4
20260506234803 11 180 0.0 4.8 0.00 0.00 0.00 95 1005.4
20260506234703 11 176 0.0 4.8 0.00 0.00 0.00 95 1005.4
20260506234603 11 166 1.6 4.8 0.00 0.00 0.00 95 1005.4
20260506234503 11 168 1.6 4.8 0.00 0.00 0.00 95 1005.4
20260506234404 11 161 1.6 4.8 0.00 0.00 0.00 95 1005.4
20260506234304 11 47 1.6 4.8 0.00 0.00 0.00 95 1005.5
20260506234204 11 35 1.6 3.2 0.00 0.00 0.00 95 1005.5
20260506234104 11 35 1.6 3.2 0.00 0.00 0.00 95 1005.5
20260506234004 11 35 1.6 3.2 0.00 0.00 0.00 95 1005.5
20260506233904 11 28 1.6 3.2 0.00 0.00 0.00 95 1005.4
20260506233804 11 27 1.6 3.2 0.00 0.00 0.00 95 1005.4
20260506233704 11 17 1.6 3.2 0.00 0.00 0.00 95 1005.5
20260506233604 11 360 0.0 3.2 0.00 0.00 0.00 95 1005.5
20260506233503 11 360 0.0 3.2 0.00 0.00 0.00 95 1005.5
20260506233403 11 360 0.0 3.2 0.00 0.00 0.00 95 1005.4
20260506233303 11 0 0.0 0.0 0.00 0.00 0.00 95 1005.5
20260506233203 11 0 0.0 0.0 0.00 0.00 0.00 95 1005.5
20260506233103 11 0 0.0 0.0 0.00 0.00 0.00 95 1005.5
20260506233003 11 0 0.0 0.0 0.00 0.00 0.00 95 1005.6
20260506232903 11 0 0.0 0.0 0.00 0.00 0.00 95 1005.7
20260506232803 11 0 0.0 0.0 0.00 0.00 0.00 94 1005.5
20260506232703 11 0 0.0 0.0 0.00 0.00 0.00 94 1005.6
20260506232603 11 0 0.0 0.0 0.00 0.00 0.00 94 1005.4
20260506232503 11 0 0.0 0.0 0.00 0.00 0.00 94 1005.6
20260506232404 11 0 0.0 0.0 0.00 0.00 0.00 94 1005.6
20260506232306 11 0 0.0 0.0 0.00 0.00 0.00 94 1005.6
20260506232204 11 0 0.0 0.0 0.00 0.00 0.00 94 1005.5
20260506232104 11 0 0.0 0.0 0.00 0.00 0.00 94 1005.5
20260506232004 11 0 0.0 0.0 0.00 0.00 0.00 94 1005.5
20260506231703 11 0 0.0 0.0 0.00 0.00 0.00 94 1005.6
20260506231603 11 0 0.0 0.0 0.00 0.00 0.00 94 1005.6
20260506231503 11 0 0.0 0.0 0.00 0.00 0.00 94 1005.5
20260506231404 11 0 0.0 0.0 0.00 0.00 0.00 94 1005.6
20260506231003 11 0 0.0 0.0 0.00 0.00 0.00 94 1005.5
20260506230903 11 0 0.0 0.0 0.00 0.00 0.00 94 1005.4
20260506230803 11 0 0.0 0.0 0.00 0.00 0.00 94 1005.4
20260506230703 11 0 0.0 0.0 0.00 0.00 0.00 94 1005.4
20260506230604 11 0 0.0 0.0 0.00 0.00 0.00 94 1005.3
20260506230503 11 0 0.0 0.0 0.00 0.00 0.00 94 1005.5
20260506230403 11 0 0.0 0.0 0.00 0.00 0.00 94 1005.5
20260506230303 11 0 0.0 0.0 0.00 0.00 0.00 94 1005.4
20260506230203 11 0 0.0 0.0 0.00 0.00 0.00 94 1005.3
20260506230103 11 45 0.0 3.2 0.00 0.00 0.00 94 1005.5
20260506230004 11 6 0.0 3.2 0.00 0.00 0.00 94 1005.4
20260506225904 11 339 0.0 3.2 0.00 0.00 0.00 93 1005.5
20260506225804 11 328 1.6 3.2 0.00 0.00 0.00 93 1005.3
20260506225704 11 336 1.6 3.2 0.00 0.00 0.00 93 1005.4
20260506225604 11 339 1.6 3.2 0.00 0.00 0.00 93 1005.5
20260506225504 11 340 1.6 3.2 0.00 0.00 0.00 93 1005.5
20260506225404 11 340 1.6 3.2 0.00 0.00 0.00 93 1005.5
20260506225305 11 340 1.6 3.2 0.00 0.00 0.00 93 1005.5
20260506225204 11 340 1.6 3.2 0.00 0.00 0.00 93 1005.5
20260506225104 11 333 1.6 3.2 0.00 0.00 0.00 93 1005.6
20260506225004 11 331 1.6 3.2 0.00 0.00 0.00 93 1005.5
20260506224904 10 345 1.6 3.2 0.00 0.00 0.00 93 1005.4
20260506224804 10 345 0.0 3.2 0.00 0.00 0.00 93 1005.4
20260506224704 10 353 0.0 3.2 0.00 0.00 0.00 93 1005.4
20260506224604 10 0 0.0 0.0 0.00 0.00 0.00 93 1005.3
20260506224503 10 0 0.0 0.0 0.00 0.00 0.00 93 1005.5
20260506224403 10 0 0.0 0.0 0.00 0.00 0.00 93 1005.4
20260506224303 10 0 0.0 0.0 0.00 0.00 0.00 93 1005.5
20260506224203 10 0 0.0 0.0 0.00 0.00 0.00 93 1005.5
20260506224103 10 0 0.0 0.0 0.00 0.00 0.00 93 1005.5
20260506224003 10 0 0.0 0.0 0.00 0.00 0.00 93 1005.5
20260506223903 10 0 0.0 0.0 0.00 0.00 0.00 92 1005.5
20260506223803 10 0 0.0 0.0 0.00 0.00 0.00 92 1005.5
20260506223703 10 0 0.0 0.0 0.00 0.00 0.00 92 1005.5
20260506223603 10 0 0.0 0.0 0.00 0.00 0.00 92 1005.4
20260506223503 10 0 0.0 0.0 0.00 0.00 0.00 92 1005.5
20260506223403 10 0 0.0 0.0 0.00 0.00 0.00 92 1005.5
20260506223303 10 0 0.0 0.0 0.00 0.00 0.00 92 1005.5
20260506223203 10 0 0.0 0.0 0.00 0.00 0.00 92 1005.5
20260506223103 10 0 0.0 0.0 0.00 0.00 0.00 92 1005.5
20260506223004 10 0 0.0 0.0 0.00 0.00 0.00 92 1005.4
20260506222904 10 0 0.0 0.0 0.00 0.00 0.00 92 1005.5
20260506222804 10 0 0.0 0.0 0.00 0.00 0.00 92 1005.5
20260506222704 10 0 0.0 0.0 0.00 0.00 0.00 92 1005.4
20260506222604 10 0 0.0 0.0 0.00 0.00 0.00 92 1005.4
20260506222504 10 0 0.0 0.0 0.00 0.00 0.00 92 1005.5
20260506222404 10 0 0.0 0.0 0.00 0.00 0.00 92 1005.5
20260506222306 10 0 0.0 0.0 0.00 0.00 0.00 92 1005.5
20260506222204 10 0 0.0 0.0 0.00 0.00 0.00 92 1005.5
20260506222104 10 0 0.0 0.0 0.00 0.00 0.00 92 1005.5
20260506222004 10 0 0.0 0.0 0.00 0.00 0.00 92 1005.6
20260506221703 10 0 0.0 0.0 0.00 0.00 0.00 92 1005.4
20260506221603 10 0 0.0 0.0 0.00 0.00 0.00 92 1005.4
20260506221504 10 0 0.0 0.0 0.00 0.00 0.00 92 1005.5
20260506221204 10 0 0.0 0.0 0.00 0.00 0.00 92 1005.6
20260506221104 10 0 0.0 0.0 0.00 0.00 0.00 92 1005.6
20260506221004 10 0 0.0 0.0 0.00 0.00 0.00 92 1005.6
20260506220904 10 0 0.0 0.0 0.00 0.00 0.00 92 1005.5
20260506220804 10 0 0.0 0.0 0.00 0.00 0.00 92 1005.5
20260506220704 10 0 0.0 0.0 0.00 0.00 0.00 92 1005.5
20260506220604 11 0 0.0 0.0 0.00 0.00 0.00 92 1005.5
20260506220404 11 0 0.0 0.0 0.00 0.00 0.00 92 1005.6
20260506220303 11 0 0.0 0.0 0.00 0.00 0.00 92 1005.5
20260506220203 11 0 0.0 0.0 0.00 0.00 0.00 92 1005.5
20260506220050 11 0 0.0 0.0 0.00 0.00 0.00 92 1005.6
20260506215903 11 0 0.0 0.0 0.00 0.00 0.00 92 1005.5
20260506215803 11 0 0.0 0.0 0.00 0.00 0.00 92 1005.6
20260506215703 11 0 0.0 0.0 0.00 0.00 0.00 91 1005.6
20260506215603 11 0 0.0 0.0 0.00 0.00 0.00 91 1005.4
20260506215504 11 0 0.0 0.0 0.00 0.00 0.00 91 1005.5
20260506215404 11 0 0.0 0.0 0.00 0.00 0.00 91 1005.5
20260506215306 11 0 0.0 0.0 0.00 0.00 0.00 91 1005.6
20260506215204 11 0 0.0 0.0 0.00 0.00 0.00 91 1005.6
20260506215104 11 0 0.0 0.0 0.00 0.00 0.00 91 1005.6
20260506215004 11 0 0.0 0.0 0.00 0.00 0.00 91 1005.5
20260506214904 11 0 0.0 0.0 0.00 0.00 0.00 91 1005.5
20260506214804 11 0 0.0 0.0 0.00 0.00 0.00 91 1005.6
20260506214704 11 0 0.0 0.0 0.00 0.00 0.00 91 1005.5
20260506214604 11 0 0.0 0.0 0.00 0.00 0.00 91 1005.5
20260506214504 11 90 0.0 3.2 0.00 0.00 0.00 91 1005.4
20260506214403 11 181 0.0 3.2 0.00 0.00 0.00 91 1005.5
20260506214304 11 181 0.0 3.2 0.00 0.00 0.00 91 1005.5
20260506214204 11 181 0.0 3.2 0.00 0.00 0.00 91 1005.5
20260506214103 11 181 0.0 3.2 0.00 0.00 0.00 91 1005.5
20260506214003 11 181 0.0 3.2 0.00 0.00 0.00 91 1005.5
20260506213903 11 181 0.0 3.2 0.00 0.00 0.00 91 1005.6
20260506213803 11 181 0.0 3.2 0.00 0.00 0.00 91 1005.5
20260506213703 11 181 0.0 3.2 0.00 0.00 0.00 91 1005.4
20260506213603 11 181 0.0 3.2 0.00 0.00 0.00 91 1005.5
20260506213503 11 219 0.0 3.2 0.00 0.00 0.00 91 1005.6
20260506213403 10 0 0.0 0.0 0.00 0.00 0.00 91 1005.5
20260506213303 10 0 0.0 0.0 0.00 0.00 0.00 90 1005.6
20260506213203 10 0 0.0 0.0 0.00 0.00 0.00 90 1005.5
20260506213103 10 0 0.0 0.0 0.00 0.00 0.00 90 1005.5
20260506213004 10 0 0.0 0.0 0.00 0.00 0.00 90 1005.6
20260506212904 10 0 0.0 0.0 0.00 0.00 0.00 90 1005.6
20260506212804 10 0 0.0 0.0 0.00 0.00 0.00 90 1005.6
20260506212704 10 0 0.0 0.0 0.00 0.00 0.00 90 1005.5
20260506212604 10 0 0.0 0.0 0.00 0.00 0.00 90 1005.7
20260506212504 10 0 0.0 0.0 0.00 0.00 0.00 90 1005.5
20260506212404 10 0 0.0 0.0 0.00 0.00 0.00 90 1005.5
20260506212306 10 0 0.0 0.0 0.00 0.00 0.00 90 1005.4
20260506212204 10 0 0.0 0.0 0.00 0.00 0.00 90 1005.5
20260506212103 10 0 0.0 0.0 0.00 0.00 0.00 90 1005.5
20260506212004 10 0 0.0 0.0 0.00 0.00 0.00 90 1005.5
20260506211704 10 0 0.0 0.0 0.00 0.00 0.00 90 1005.5
20260506211604 10 0 0.0 0.0 0.00 0.00 0.00 90 1005.6
20260506211504 10 0 0.0 0.0 0.00 0.00 0.00 90 1005.4
20260506211404 11 0 0.0 0.0 0.00 0.00 0.00 90 1005.4
20260506211304 11 0 0.0 0.0 0.00 0.00 0.00 90 1005.5
20260506211204 11 0 0.0 0.0 0.00 0.00 0.00 90 1005.6
20260506211104 11 0 0.0 0.0 0.00 0.00 0.00 90 1005.6
20260506211004 11 0 0.0 0.0 0.00 0.00 0.00 90 1005.7
20260506210904 11 0 0.0 0.0 0.00 0.00 0.00 90 1005.5
20260506210803 11 0 0.0 0.0 0.00 0.00 0.00 90 1005.6
20260506210703 11 0 0.0 0.0 0.00 0.00 0.00 90 1005.7
20260506210603 11 0 0.0 0.0 0.00 0.00 0.00 90 1005.6
20260506210503 11 0 0.0 0.0 0.00 0.00 0.00 90 1005.5
20260506210403 11 0 0.0 0.0 0.00 0.00 0.00 90 1005.7
20260506210303 11 0 0.0 0.0 0.00 0.00 0.00 90 1005.6
20260506210203 11 0 0.0 0.0 0.00 0.00 0.00 90 1005.6
20260506210103 11 0 0.0 0.0 0.00 0.00 0.00 90 1005.4
20260506210003 11 0 0.0 0.0 0.00 0.00 0.00 90 1005.6
20260506205903 11 0 0.0 0.0 0.00 0.00 0.00 90 1005.4
20260506205803 11 0 0.0 0.0 0.00 0.00 0.00 90 1005.6
20260506205704 11 0 0.0 0.0 0.00 0.00 0.00 90 1005.7
20260506205604 11 0 0.0 0.0 0.00 0.00 0.00 90 1005.5
20260506205504 11 0 0.0 0.0 0.00 0.00 0.00 90 1005.5
20260506205404 11 0 0.0 0.0 0.00 0.00 0.00 90 1005.5
20260506205306 11 0 0.0 0.0 0.00 0.00 0.00 90 1005.5
20260506205204 11 0 0.0 0.0 0.00 0.00 0.00 90 1005.6
20260506205104 11 0 0.0 0.0 0.00 0.00 0.00 90 1005.6
20260506205004 11 0 0.0 0.0 0.00 0.00 0.00 90 1005.5
20260506204904 11 0 0.0 0.0 0.00 0.00 0.00 90 1005.6
20260506204804 11 0 0.0 0.0 0.00 0.00 0.00 90 1005.7
20260506204704 11 0 0.0 0.0 0.00 0.00 0.00 90 1005.4
20260506204604 11 0 0.0 0.0 0.00 0.00 0.00 90 1005.5
20260506204504 11 0 0.0 0.0 0.00 0.00 0.00 90 1005.6
20260506204404 11 0 0.0 0.0 0.00 0.00 0.00 90 1005.5
20260506204203 11 0 0.0 0.0 0.00 0.00 0.00 89 1005.6
20260506204003 11 0 0.0 0.0 0.00 0.00 0.00 89 1005.6
20260506203903 11 0 0.0 0.0 0.00 0.00 0.00 89 1005.5
20260506203803 11 0 0.0 0.0 0.00 0.00 0.00 89 1005.5
20260506203703 11 0 0.0 0.0 0.00 0.00 0.00 89 1005.5
20260506203603 11 0 0.0 0.0 0.00 0.00 0.00 89 1005.5
20260506203503 11 0 0.0 0.0 0.00 0.00 0.00 89 1005.6
20260506203403 11 0 0.0 0.0 0.00 0.00 0.00 89 1005.6
20260506203304 12 0 0.0 0.0 0.00 0.00 0.00 90 1005.6
20260506203204 12 0 0.0 0.0 0.00 0.00 0.00 90 1005.6
20260506203107 12 0 0.0 0.0 0.00 0.00 0.00 90 1005.6
20260506203004 12 0 0.0 0.0 0.00 0.00 0.00 90 1005.7
20260506202904 12 0 0.0 0.0 0.00 0.00 0.00 90 1005.5
20260506202804 12 0 0.0 0.0 0.00 0.00 0.00 90 1005.5
20260506202705 12 0 0.0 0.0 0.00 0.00 0.00 90 1005.5
20260506202605 12 0 0.0 0.0 0.00 0.00 0.00 90 1005.5
20260506202504 12 0 0.0 0.0 0.00 0.00 0.00 90 1005.5
20260506202404 12 0 0.0 0.0 0.00 0.00 0.00 90 1005.4
20260506202306 12 0 0.0 0.0 0.00 0.00 0.00 90 1005.6
20260506202203 12 0 0.0 0.0 0.00 0.00 0.00 90 1005.5
20260506202104 12 0 0.0 0.0 0.00 0.00 0.00 90 1005.5
20260506202004 12 0 0.0 0.0 0.00 0.00 0.00 90 1005.5
20260506200704 12 0 0.0 0.0 0.00 18.77 18.77 32 1005.4
20260506200104 12 0 0.0 0.0 0.00 18.77 18.77 32 1005.4
20260506200004 12 0 0.0 0.0 0.00 18.77 18.77 32 1005.4
20260506195603 13 0 0.0 0.0 0.00 18.77 18.77 32 1005.4
20260506194204 13 0 0.0 0.0 0.00 18.77 18.77 32 1005.3
20260506194105 13 0 0.0 0.0 0.00 18.77 18.77 32 1005.3
20260506193605 13 0 0.0 0.0 0.00 18.77 18.77 32 1005.4
20260506193304 13 0 0.0 0.0 0.00 0.00 18.77 32 1005.4
20260506193205 13 0 0.0 0.0 0.00 0.00 18.77 85 1005.4
20260506193104 13 0 0.0 0.0 0.00 0.00 18.77 32 1005.4
20260506193005 13 0 0.0 0.0 0.00 0.00 18.77 85 1005.4
20260506192703 13 300 0.0 3.2 0.00 0.00 18.77 85 1005.4
20260506192604 13 300 0.0 3.2 0.00 0.00 18.77 85 1005.4
20260506192503 13 302 0.0 3.2 0.00 3.73 18.77 32 1005.4
20260506192404 13 303 1.6 3.2 0.00 18.77 18.77 85 1005.4
20260506191703 13 300 1.6 3.2 0.00 0.00 0.00 85 1005.2
20260506191603 13 304 1.6 3.2 0.00 0.00 0.00 85 1005.2
20260506191503 13 305 1.6 3.2 0.00 0.00 0.00 85 1005.2
20260506191403 13 306 1.6 3.2 0.00 0.00 0.00 84 1005.2
20260506191304 13 306 1.6 3.2 0.00 0.00 0.00 84 1005.2
20260506191205 13 302 1.6 3.2 0.00 0.00 0.00 84 1005.2
20260506191104 13 287 1.6 3.2 0.00 0.00 0.00 84 1005.2
20260506191004 13 270 0.0 3.2 0.00 0.00 0.00 84 1005.0
20260506190904 13 298 0.0 3.2 0.00 0.00 0.00 84 1005.0
20260506190804 13 315 0.0 3.2 0.00 0.00 0.00 84 1005.2
20260506190704 13 0 0.0 0.0 0.00 0.00 0.00 84 1005.2
20260506190604 13 0 0.0 0.0 0.00 0.00 0.00 84 1005.0
20260506190504 13 0 0.0 0.0 0.00 0.00 0.00 84 1005.0
20260506190404 13 0 0.0 0.0 0.00 0.00 0.00 84 1005.1
20260506190304 13 0 0.0 0.0 0.00 0.00 0.00 84 1005.0
20260506190204 13 0 0.0 0.0 0.00 0.00 0.00 84 1005.0
20260506190103 13 180 0.0 1.6 0.00 0.00 0.00 84 1005.0
20260506190004 13 148 0.0 3.2 0.00 0.00 0.00 84 1005.1
20260506185903 13 136 0.0 3.2 0.00 0.00 0.00 83 1005.0
20260506185803 13 73 0.0 3.2 0.00 0.00 0.00 83 1005.0
20260506185705 13 8 1.6 3.2 0.00 0.00 0.00 83 1005.0
20260506185603 13 304 1.6 3.2 0.00 0.00 0.00 83 1004.9
20260506185503 13 330 1.6 3.2 0.00 0.00 0.00 83 1005.0
20260506185403 13 312 1.6 3.2 0.00 0.00 0.00 83 1005.0
20260506185306 13 297 1.6 3.2 0.00 0.00 0.00 83 1004.8
20260506185203 13 296 1.6 3.2 0.00 0.00 0.00 83 1004.8
20260506185104 13 284 1.6 3.2 0.00 0.00 0.00 83 1004.8
20260506185004 13 284 1.6 3.2 0.00 0.00 0.00 83 1004.8
20260506184905 13 257 3.2 3.2 0.00 0.00 0.00 83 1004.8
20260506184804 13 240 1.6 3.2 0.00 0.00 0.00 83 1004.8
20260506184704 13 224 3.2 3.2 0.00 0.00 0.00 83 1004.8
20260506184604 13 228 1.6 3.2 0.00 0.00 0.00 83 1004.8
20260506184505 13 223 1.6 3.2 0.00 0.00 0.00 83 1004.9
20260506184404 13 228 1.6 3.2 0.00 0.00 0.00 83 1004.9
20260506184303 13 236 1.6 3.2 0.00 0.00 0.00 82 1004.7
20260506184203 13 246 3.2 3.2 0.00 0.00 0.00 82 1004.8
20260506184103 13 267 3.2 3.2 0.00 0.00 0.00 82 1004.8
20260506184003 13 281 3.2 3.2 0.00 0.00 0.00 82 1004.8
20260506183903 13 291 3.2 4.8 0.00 0.00 0.00 82 1004.7
20260506183803 14 301 3.2 4.8 0.00 0.00 0.00 82 1004.6
20260506183704 14 310 3.2 4.8 0.00 0.00 0.00 82 1004.7
20260506183603 14 308 3.2 4.8 0.00 0.00 0.00 82 1004.7
20260506183503 14 313 3.2 4.8 0.00 0.00 0.00 82 1004.7
20260506183404 14 313 3.2 4.8 0.00 0.00 0.00 82 1004.7
20260506183304 14 315 3.2 4.8 0.00 0.00 0.00 82 1004.7
20260506183204 14 315 3.2 4.8 0.00 0.00 0.00 82 1004.7
20260506183104 14 312 3.2 4.8 0.00 0.00 0.00 81 1004.7
20260506183005 14 309 3.2 4.8 0.00 0.00 0.00 81 1004.7
20260506182904 14 306 3.2 4.8 0.00 0.00 0.00 81 1004.7
20260506182804 14 288 3.2 3.2 0.00 0.00 0.00 81 1004.7
20260506182704 14 265 3.2 4.8 0.00 0.00 0.00 81 1004.6
20260506182604 14 282 3.2 4.8 0.00 0.00 0.00 81 1004.6
20260506182504 14 269 3.2 4.8 0.00 0.00 0.00 81 1004.6
20260506182404 14 279 3.2 4.8 0.00 0.00 0.00 81 1004.6
20260506182306 14 279 3.2 4.8 0.00 0.00 0.00 81 1004.6
20260506182203 14 256 3.2 4.8 0.00 0.00 0.00 81 1004.6
20260506182103 14 244 3.2 4.8 0.00 0.00 0.00 81 1004.6
20260506182004 14 251 3.2 4.8 0.00 0.00 0.00 81 1004.6
20260506181703 14 260 3.2 4.8 0.00 0.00 0.00 80 1004.6
20260506181603 14 261 3.2 4.8 0.00 0.00 0.00 80 1004.5
20260506181510 14 255 3.2 4.8 0.00 0.00 0.00 80 1004.5
20260506181403 14 249 3.2 4.8 0.00 0.00 0.00 80 1004.5
20260506181303 14 242 3.2 4.8 0.00 0.00 0.00 80 1004.5
20260506181203 14 237 3.2 4.8 0.00 0.00 0.00 80 1004.5
20260506181103 14 238 3.2 4.8 0.00 0.00 0.00 80 1004.4
20260506181003 14 233 4.8 4.8 0.00 0.00 0.00 79 1004.4
20260506180903 14 233 4.8 4.8 0.00 0.00 0.00 79 1004.6
20260506180803 14 236 4.8 4.8 0.00 0.00 0.00 79 1004.4
20260506180703 14 234 4.8 4.8 0.00 0.00 0.00 79 1004.4
20260506180604 15 231 3.2 4.8 0.00 0.00 0.00 79 1004.4
20260506180504 15 232 3.2 4.8 0.00 0.00 0.00 77 1004.5
20260506180404 15 233 3.2 4.8 0.00 0.00 0.00 77 1004.4
20260506180304 15 236 3.2 4.8 0.00 0.00 0.00 77 1004.5
20260506180204 15 237 1.6 4.8 0.00 0.00 0.00 77 1004.5
20260506180105 15 236 1.6 4.8 0.00 0.00 0.00 77 1004.5
20260506180005 15 237 1.6 4.8 0.00 0.00 0.00 77 1004.5
20260506175903 15 239 1.6 4.8 0.00 0.00 0.00 77 1004.6
20260506175803 15 233 1.6 6.4 0.00 0.00 0.00 77 1004.5
20260506175704 15 239 1.6 6.4 0.00 0.00 0.00 77 1004.6
20260506175603 15 253 3.2 6.4 0.00 0.00 0.00 77 1004.4
20260506175503 15 262 3.2 6.4 0.00 0.00 0.00 76 1004.4
20260506175403 15 267 3.2 6.4 0.00 0.00 0.00 76 1004.5
20260506175306 15 266 3.2 6.4 0.00 0.00 0.00 76 1004.4
20260506175203 15 269 3.2 6.4 0.00 0.00 0.00 76 1004.4
20260506175103 15 282 1.6 6.4 0.00 0.00 0.00 76 1004.4
20260506175004 15 297 1.6 6.4 0.00 0.00 0.00 75 1004.3
20260506174903 15 300 1.6 6.4 0.00 0.00 0.00 75 1004.4
20260506174804 15 306 1.6 6.4 0.00 0.00 0.00 75 1004.4
20260506174704 16 315 0.0 3.2 0.00 0.00 0.00 75 1004.3
20260506174604 16 315 0.0 3.2 0.00 0.00 0.00 74 1004.3
20260506174504 16 315 0.0 3.2 0.00 0.00 0.00 74 1004.2
20260506174404 16 0 0.0 0.0 0.00 0.00 0.00 74 1004.3
20260506174304 16 0 0.0 0.0 0.00 0.00 0.00 74 1004.3
20260506174204 16 0 0.0 0.0 0.00 0.00 0.00 73 1004.2
20260506174104 16 0 0.0 0.0 0.00 0.00 0.00 73 1004.0
20260506174004 16 0 0.0 0.0 0.00 0.00 0.00 73 1004.2
20260506173903 16 0 0.0 0.0 0.00 0.00 0.00 73 1004.1
20260506173803 16 0 0.0 0.0 0.00 0.00 0.00 73 1004.1
20260506173703 16 0 0.0 0.0 0.00 0.00 0.00 73 1004.2
20260506173603 16 0 0.0 0.0 0.00 0.00 0.00 73 1004.1
20260506173304 16 0 0.0 0.0 0.00 0.00 0.00 72 1004.1
20260506173204 16 0 0.0 0.0 0.00 0.00 0.00 72 1004.1
20260506173104 16 0 0.0 0.0 0.00 0.00 0.00 72 1004.1
20260506173004 16 0 0.0 0.0 0.00 0.00 0.00 72 1004.2
20260506172904 16 0 0.0 0.0 0.00 0.00 0.00 72 1004.2
20260506172804 16 0 0.0 0.0 0.00 0.00 0.00 72 1004.0
20260506172704 16 0 0.0 0.0 0.00 0.00 0.00 72 1004.1
20260506172603 16 0 0.0 0.0 0.00 0.00 0.00 72 1004.1
20260506172504 16 0 0.0 0.0 0.00 0.00 0.00 72 1004.0
20260506172403 16 0 0.0 0.0 0.00 0.00 0.00 72 1004.1
20260506172306 16 0 0.0 0.0 0.00 0.00 0.00 72 1004.1
20260506172203 16 0 0.0 0.0 0.00 0.00 0.00 72 1004.1
20260506172103 16 0 0.0 0.0 0.00 0.00 0.00 71 1004.1
20260506172003 16 0 0.0 0.0 0.00 0.00 0.00 71 1004.0
20260506171703 16 0 0.0 0.0 0.00 0.00 0.00 71 1004.1
20260506171603 16 0 0.0 0.0 0.00 0.00 0.00 71 1004.1
20260506171503 16 0 0.0 0.0 0.00 0.00 0.00 71 1004.1
20260506171403 16 0 0.0 0.0 0.00 0.00 0.00 71 1004.1
20260506171304 16 0 0.0 0.0 0.00 0.00 0.00 71 1004.0
20260506171204 16 0 0.0 0.0 0.00 0.00 0.00 71 1004.1
20260506171104 17 180 0.0 3.2 0.00 0.00 0.00 71 1004.1
20260506171004 17 175 0.0 3.2 0.00 0.00 0.00 71 1004.0
20260506170904 17 174 0.0 3.2 0.00 0.00 0.00 71 1004.0
20260506170804 17 174 0.0 3.2 0.00 0.00 0.00 71 1004.0
20260506170704 17 174 0.0 3.2 0.00 0.00 0.00 71 1004.0
20260506170604 17 174 0.0 3.2 0.00 0.00 0.00 70 1003.9
20260506170504 17 174 0.0 3.2 0.00 0.00 0.00 70 1004.1
20260506170403 17 174 0.0 3.2 0.00 0.00 0.00 70 1003.9
20260506170303 17 175 0.0 3.2 0.00 0.00 0.00 70 1003.9
20260506170204 17 175 0.0 3.2 0.00 0.00 0.00 70 1003.9
20260506170103 17 161 1.6 3.2 0.00 0.00 0.00 70 1004.1
20260506170003 17 148 1.6 3.2 0.00 0.00 0.00 70 1004.0
20260506165903 17 143 0.0 3.2 0.00 0.00 0.00 70 1003.9
20260506165803 17 142 0.0 3.2 0.00 0.00 0.00 70 1003.9
20260506165703 17 145 1.6 3.2 0.00 0.00 0.00 70 1003.9
20260506165603 17 146 1.6 3.2 0.00 0.00 0.00 70 1003.9
20260506165503 17 146 1.6 3.2 0.00 0.00 0.00 70 1003.9
20260506165403 17 146 1.6 3.2 0.00 0.00 0.00 69 1003.9
20260506165305 17 142 0.0 3.2 0.00 0.00 0.00 69 1003.9
20260506165204 17 142 0.0 3.2 0.00 0.00 0.00 64 1003.9
20260506165104 17 146 0.0 3.2 0.00 0.00 0.00 64 1003.9
20260506165004 17 168 0.0 1.6 0.00 0.00 0.00 64 1003.9
20260506164904 17 171 0.0 1.6 0.00 0.00 0.00 64 1004.0
20260506164804 17 180 0.0 1.6 0.00 0.00 0.00 64 1003.9
20260506164704 17 180 0.0 1.6 0.00 0.00 0.00 64 1004.0
20260506164604 17 0 0.0 0.0 0.00 0.00 0.00 64 1003.9
20260506164503 18 0 0.0 0.0 0.00 0.00 0.00 63 1004.1
20260506164403 18 0 0.0 0.0 0.00 0.00 0.00 63 1003.9
20260506164303 18 180 0.0 1.6 0.00 0.00 0.00 63 1003.8
20260506164203 18 180 0.0 3.2 0.00 0.00 0.00 63 1003.9
20260506164103 18 180 0.0 3.2 0.00 0.00 0.00 63 1003.9
20260506164003 18 180 0.0 3.2 0.00 0.00 0.00 63 1004.0
20260506163903 18 180 0.0 3.2 0.00 0.00 0.00 63 1003.8
20260506163803 18 180 0.0 3.2 0.00 0.00 0.00 63 1003.8
20260506163703 18 180 0.0 3.2 0.00 0.00 0.00 63 1003.9
20260506163603 18 180 0.0 3.2 0.00 0.00 0.00 63 1003.9
20260506163504 18 180 0.0 3.2 0.00 0.00 0.00 62 1003.8
20260506163404 18 180 0.0 3.2 0.00 0.00 0.00 62 1004.0
20260506163304 18 180 0.0 3.2 0.00 0.00 0.00 62 1003.9
20260506163204 18 180 0.0 3.2 0.00 0.00 0.00 62 1003.8
20260506163104 18 180 0.0 3.2 0.00 0.00 0.00 63 1004.0
20260506163004 18 180 0.0 3.2 0.00 0.00 0.00 63 1003.9
20260506162904 18 0 0.0 0.0 0.00 0.00 0.00 63 1004.0
20260506162804 18 0 0.0 0.0 0.00 0.00 0.00 63 1004.0
20260506162704 18 0 0.0 0.0 0.00 0.00 0.00 63 1004.0
20260506162603 18 0 0.0 0.0 0.00 0.00 0.00 63 1004.0
20260506162503 18 0 0.0 0.0 0.00 0.00 0.00 63 1004.0
20260506162403 18 0 0.0 0.0 0.00 0.00 0.00 63 1004.0
20260506162306 18 0 0.0 0.0 0.00 0.00 0.00 62 1004.0
20260506162203 18 0 0.0 0.0 0.00 0.00 0.00 62 1004.1
20260506162103 18 0 0.0 0.0 0.00 0.00 0.00 62 1004.1
20260506162003 18 0 0.0 0.0 0.00 0.00 0.00 63 1003.8
20260506161704 18 0 0.0 0.0 0.00 0.00 0.00 63 1004.0
20260506161604 18 0 0.0 0.0 0.00 0.00 0.00 63 1004.0
20260506161504 18 0 0.0 0.0 0.00 0.00 0.00 63 1004.0
20260506161403 18 0 0.0 0.0 0.00 0.00 0.00 63 1004.0
20260506161303 18 0 0.0 0.0 0.00 0.00 0.00 62 1004.1
20260506161204 18 0 0.0 0.0 0.00 0.00 0.00 62 1003.9
20260506161103 18 0 0.0 0.0 0.00 0.00 0.00 62 1004.1
20260506161003 18 0 0.0 0.0 0.00 0.00 0.00 62 1004.0
20260506160904 18 0 0.0 0.0 0.00 0.00 0.00 62 1004.0
20260506160803 18 0 0.0 0.0 0.00 0.00 0.00 61 1004.0
20260506160703 18 0 0.0 0.0 0.00 0.00 0.00 61 1004.0
20260506160603 18 0 0.0 0.0 0.00 0.00 0.00 61 1003.9
20260506160503 18 0 0.0 0.0 0.00 0.00 0.00 61 1004.0
20260506160403 18 315 0.0 1.6 0.00 0.00 0.00 61 1004.0
20260506160304 18 214 0.0 1.6 0.00 0.00 0.00 61 1004.1
20260506160204 18 180 0.0 3.2 0.00 0.00 0.00 61 1004.1
20260506160104 18 180 0.0 3.2 0.00 0.00 0.00 61 1004.1
20260506160004 18 180 0.0 3.2 0.00 0.00 0.00 61 1004.1
20260506155904 18 176 0.0 3.2 0.00 0.00 0.00 60 1004.0